DW7984 Weather Reports


time (UTC)temp
C
wind
direction
speed
KPH
gust
KPH
rain 1hr
cm
rain 24hr
cm
rain mn
cm
humidity
%
barometer
mb
20260508100826 19 119 6.4 16.1 0.00 0.03 0.03 60 1049.2
20260508100819 19 88 6.4 16.1 0.00 0.03 0.03 59 1049.2
20260508100537 19 90 4.8 14.5 0.00 0.03 0.03 58 1049.2
20260508100454 19 87 4.8 14.5 0.00 0.03 0.03 58 1049.2
20260508100350 19 88 4.8 14.5 0.00 0.03 0.03 57 1049.1
20260508100249 19 88 4.8 14.5 0.00 0.03 0.03 57 1049.2
20260508100149 19 89 4.8 14.5 0.00 0.03 0.03 57 1049.2
20260508100049 19 118 4.8 14.5 0.00 0.03 0.03 57 1049.2
20260508100038 19 123 3.2 14.5 0.00 0.03 0.03 57 1049.3
20260508095948 19 164 3.2 14.5 0.00 0.03 0.03 59 1049.2
20260508095842 19 135 3.2 11.3 0.00 0.03 0.03 59 1049.2
20260508095743 19 316 3.2 11.3 0.00 0.03 0.03 61 1049.3
20260508095643 19 316 3.2 11.3 0.00 0.03 0.03 61 1049.2
20260508095536 19 140 4.8 11.3 0.00 0.03 0.03 60 1049.3
20260508095442 19 136 4.8 11.3 0.00 0.03 0.03 59 1049.3
20260508095339 19 136 4.8 11.3 0.00 0.03 0.03 59 1049.3
20260508095237 19 136 4.8 11.3 0.00 0.03 0.03 58 1049.4
20260508095137 19 137 4.8 11.3 0.00 0.03 0.03 58 1049.4
20260508095037 19 136 4.8 11.3 0.00 0.03 0.03 58 1049.4
20260508094935 19 136 4.8 11.3 0.00 0.03 0.03 59 1049.4
20260508094834 19 137 4.8 11.3 0.00 0.03 0.03 59 1049.4
20260508094818 18 174 4.8 11.3 0.00 0.03 0.03 59 1049.3
20260508094807 18 202 4.8 11.3 0.00 0.03 0.03 59 1049.3
20260508094532 18 247 4.8 11.3 0.00 0.03 0.03 59 1049.4
20260508094433 18 239 4.8 9.7 0.00 0.03 0.03 58 1049.3
20260508094332 18 240 4.8 9.7 0.00 0.03 0.03 57 1049.3
20260508094232 18 240 4.8 11.3 0.00 0.03 0.03 56 1049.3
20260508094131 18 239 4.8 11.3 0.00 0.03 0.03 55 1049.3
20260508094032 18 110 4.8 11.3 0.00 0.03 0.03 55 1049.3
20260508093932 18 110 4.8 11.3 0.00 0.03 0.03 55 1049.3
20260508093851 18 114 4.8 11.3 0.00 0.03 0.03 55 1049.4
20260508093842 18 114 4.8 11.3 0.00 0.03 0.03 55 1049.4
20260508093831 18 114 4.8 11.3 0.00 0.03 0.03 55 1049.4
20260508093600 18 113 4.8 11.3 0.00 0.03 0.03 57 1049.3
20260508093552 18 114 4.8 11.3 0.00 0.03 0.03 57 1049.3
20260508093315 18 191 4.8 11.3 0.00 0.03 0.03 57 1049.3
20260508093302 18 147 4.8 11.3 0.00 0.03 0.03 57 1049.3
20260508093027 18 147 4.8 11.3 0.00 0.03 0.03 57 1049.3
20260508092926 18 93 4.8 11.3 0.00 0.03 0.03 58 1049.3
20260508092852 18 234 4.8 11.3 0.00 0.03 0.03 57 1049.3
20260508092844 18 235 6.4 14.5 0.00 0.03 0.03 58 1049.3
20260508092828 18 237 6.4 14.5 0.00 0.03 0.03 58 1049.3
20260508092817 18 238 6.4 14.5 0.00 0.03 0.03 57 1049.3
20260508092549 18 237 6.4 14.5 0.00 0.03 0.03 58 1049.3
20260508092537 18 238 6.4 14.5 0.00 0.03 0.03 57 1049.3
20260508092251 18 239 6.4 14.5 0.00 0.03 0.03 58 1049.3
20260508092021 18 238 6.4 14.5 0.00 0.03 0.03 60 1049.4
20260508091915 18 239 6.4 14.5 0.00 0.03 0.03 59 1049.4
20260508091815 18 256 6.4 14.5 0.00 0.03 0.03 59 1049.3
20260508091715 18 231 4.8 12.9 0.00 0.03 0.03 59 1049.3
20260508091617 18 215 4.8 12.9 0.00 0.03 0.03 59 1049.4
20260508091525 18 208 4.8 12.9 0.00 0.03 0.03 58 1049.4
20260508091513 18 204 4.8 12.9 0.00 0.03 0.03 58 1049.4
20260508091412 18 104 4.8 12.9 0.00 0.03 0.03 59 1049.4
20260508091336 18 139 4.8 11.3 0.00 0.03 0.03 60 1049.4
20260508091329 18 131 4.8 11.3 0.00 0.03 0.03 61 1049.4
20260508091315 18 129 4.8 11.3 0.00 0.03 0.03 60 1049.4
20260508091303 18 129 4.8 11.3 0.00 0.03 0.03 60 1049.4
20260508091033 18 118 4.8 11.3 0.00 0.03 0.03 60 1049.4
20260508090709 18 115 4.8 11.3 0.00 0.03 0.03 60 1049.4
20260508090608 18 114 4.8 11.3 0.00 0.03 0.03 58 1049.4
20260508090508 18 114 4.8 11.3 0.00 0.03 0.03 58 1049.3
20260508090408 18 116 4.8 11.3 0.00 0.03 0.03 58 1049.3
20260508090309 18 129 4.8 11.3 0.00 0.03 0.03 59 1049.3
20260508090206 18 129 4.8 11.3 0.00 0.03 0.03 60 1049.3
20260508090108 18 120 4.8 11.3 0.00 0.03 0.03 59 1049.3
20260508090007 18 253 4.8 11.3 0.00 0.03 0.03 59 1049.3
20260508085907 18 253 4.8 11.3 0.00 0.03 0.03 59 1049.3
20260508085804 18 253 4.8 11.3 0.00 0.03 0.03 58 1049.3
20260508085739 18 253 4.8 11.3 0.00 0.03 0.03 60 1049.3
20260508085729 18 208 4.8 11.3 0.00 0.03 0.03 59 1049.3
20260508085720 18 205 4.8 11.3 0.00 0.03 0.03 59 1049.3
20260508085703 18 213 4.8 11.3 0.00 0.03 0.03 59 1049.3
20260508085438 18 150 4.8 11.3 0.00 0.03 0.03 60 1049.3
20260508085104 18 147 4.8 9.7 0.00 0.03 0.03 60 1049.3
20260508085023 17 146 4.8 9.7 0.00 0.03 0.03 60 1049.2
20260508085003 17 147 4.8 9.7 0.00 0.03 0.03 60 1049.2
20260508084904 17 147 4.8 9.7 0.00 0.03 0.03 60 1049.2
20260508084803 17 147 3.2 9.7 0.00 0.03 0.03 64 1049.2
20260508084703 17 147 3.2 9.7 0.00 0.03 0.03 63 1049.2
20260508084602 17 143 3.2 8.0 0.00 0.03 0.03 63 1049.2
20260508084536 17 143 3.2 6.4 0.00 0.03 0.03 63 1049.2
20260508084529 17 143 3.2 6.4 0.00 0.03 0.03 63 1049.2
20260508084520 17 143 3.2 6.4 0.00 0.03 0.03 63 1049.2
20260508084154 17 143 3.2 11.3 0.00 0.03 0.03 64 1049.2
20260508084056 17 143 3.2 11.3 0.00 0.03 0.03 63 1049.1
20260508084021 17 143 3.2 11.3 0.00 0.03 0.03 64 1049.1
20260508083956 17 143 3.2 11.3 0.00 0.03 0.03 64 1049.1
20260508083855 17 148 3.2 11.3 0.00 0.03 0.03 64 1049.1
20260508083751 17 148 4.8 11.3 0.00 0.03 0.03 65 1049.0
20260508083702 17 148 4.8 11.3 0.00 0.03 0.03 65 1049.0
20260508083645 17 149 4.8 11.3 0.00 0.03 0.03 65 1049.0
20260508083632 17 149 4.8 11.3 0.00 0.03 0.03 65 1049.0
20260508083623 17 149 4.8 11.3 0.00 0.03 0.03 65 1049.0
20260508083044 17 145 4.8 11.3 0.00 0.03 0.03 64 1049.1
20260508083029 17 145 4.8 11.3 0.00 0.03 0.03 63 1049.1
20260508083018 17 145 4.8 11.3 0.00 0.03 0.03 64 1049.1
20260508083004 17 145 4.8 11.3 0.00 0.03 0.03 65 1049.1
20260508082646 17 150 4.8 11.3 0.00 0.03 0.03 64 1049.0
20260508082544 17 150 4.8 11.3 0.00 0.03 0.03 64 1049.0
20260508082525 17 150 4.8 11.3 0.00 0.03 0.03 63 1049.0
20260508082445 17 150 4.8 11.3 0.00 0.03 0.03 63 1049.0
20260508082343 17 151 4.8 12.9 0.00 0.03 0.03 63 1049.0
20260508082242 17 150 4.8 12.9 0.00 0.03 0.03 62 1049.0
20260508082140 17 150 4.8 12.9 0.00 0.03 0.03 61 1049.0
20260508082042 17 150 4.8 12.9 0.00 0.03 0.03 61 1048.8
20260508082021 17 153 4.8 12.9 0.00 0.03 0.03 61 1048.8
20260508082010 17 160 4.8 12.9 0.00 0.03 0.03 61 1048.8
20260508082000 17 160 4.8 12.9 0.00 0.03 0.03 60 1048.8
20260508081640 17 160 3.2 12.9 0.00 0.03 0.03 59 1048.8
20260508081520 17 137 3.2 12.9 0.00 0.03 0.03 62 1048.8
20260508081440 17 137 3.2 11.3 0.00 0.03 0.03 66 1048.7
20260508081341 17 137 3.2 8.0 0.00 0.03 0.03 65 1048.7
20260508081242 17 137 3.2 8.0 0.00 0.03 0.03 65 1048.7
20260508081140 17 137 3.2 8.0 0.00 0.03 0.03 64 1048.6
20260508081020 17 137 3.2 8.0 0.00 0.03 0.03 64 1048.6
20260508080942 17 137 3.2 8.0 0.00 0.03 0.03 64 1048.6
20260508080838 17 137 4.8 8.0 0.00 0.03 0.03 64 1048.6
20260508080738 17 137 3.2 8.0 0.00 0.03 0.03 64 1048.6
20260508080636 17 135 3.2 8.0 0.00 0.03 0.03 65 1048.6
20260508080536 17 137 3.2 8.0 0.00 0.03 0.03 66 1048.6
20260508080519 17 138 3.2 8.0 0.00 0.03 0.03 66 1048.6
20260508080437 17 138 3.2 8.0 0.00 0.03 0.03 65 1048.6
20260508080339 17 138 3.2 8.0 0.00 0.03 0.03 65 1048.5
20260508080234 17 137 3.2 8.0 0.00 0.03 0.03 65 1048.5
20260508080134 17 138 1.6 8.0 0.00 0.03 0.03 66 1048.5
20260508080034 17 138 1.6 8.0 0.00 0.03 0.03 66 1048.5
20260508080018 17 137 1.6 8.0 0.00 0.03 0.03 66 1048.5
20260508075934 17 222 1.6 6.4 0.00 0.03 0.03 66 1048.5
20260508075834 17 222 1.6 6.4 0.00 0.03 0.03 66 1048.4
20260508075734 17 224 1.6 6.4 0.00 0.03 0.03 65 1048.4
20260508075632 17 223 1.6 6.4 0.00 0.03 0.03 66 1048.4
20260508075517 17 223 1.6 6.4 0.00 0.03 0.03 67 1048.5
20260508075505 17 222 0.0 6.4 0.00 0.03 0.03 70 1048.4
20260508075455 17 224 0.0 6.4 0.00 0.03 0.03 71 1048.4
20260508075443 17 226 0.0 3.2 0.00 0.03 0.03 71 1048.4
20260508075433 17 226 0.0 3.2 0.00 0.03 0.03 70 1048.4
20260508075425 17 225 1.6 3.2 0.00 0.03 0.03 71 1048.4
20260508074831 17 226 1.6 3.2 0.00 0.03 0.03 71 1048.3
20260508074731 17 226 1.6 3.2 0.00 0.03 0.03 72 1048.4
20260508074630 16 226 1.6 4.8 0.00 0.03 0.03 72 1048.3
20260508074524 16 226 1.6 4.8 0.00 0.03 0.03 72 1048.4
20260508074514 16 226 1.6 6.4 0.00 0.03 0.03 72 1048.4
20260508074454 16 226 3.2 6.4 0.00 0.03 0.03 72 1048.3
20260508074444 16 226 3.2 6.4 0.00 0.03 0.03 72 1048.3
20260508074122 16 228 3.2 6.4 0.00 0.03 0.03 72 1048.3
20260508074027 16 226 3.2 6.4 0.00 0.03 0.03 73 1048.4
20260508074014 16 226 3.2 8.0 0.00 0.03 0.03 72 1048.4
20260508073949 16 226 3.2 8.0 0.00 0.03 0.03 73 1048.4
20260508073939 16 226 3.2 8.0 0.00 0.03 0.03 73 1048.4
20260508073629 16 226 3.2 8.0 0.00 0.03 0.03 74 1048.4
20260508073611 16 226 3.2 8.0 0.00 0.03 0.03 74 1048.4
20260508073556 16 226 3.2 8.0 0.00 0.03 0.03 75 1048.4
20260508073546 16 226 3.2 8.0 0.00 0.03 0.03 74 1048.3
20260508073022 16 228 3.2 6.4 0.00 0.03 0.03 75 1048.3
20260508073008 16 229 3.2 6.4 0.00 0.03 0.03 75 1048.3
20260508072906 16 229 3.2 6.4 0.00 0.03 0.03 75 1048.4
20260508072811 16 230 3.2 6.4 0.00 0.03 0.03 75 1048.3
20260508072801 16 229 3.2 6.4 0.00 0.03 0.03 75 1048.3
20260508072745 16 230 3.2 6.4 0.00 0.03 0.03 75 1048.3
20260508072506 16 230 3.2 6.4 0.00 0.03 0.03 75 1048.4
20260508072437 16 231 4.8 6.4 0.00 0.03 0.03 75 1048.3
20260508072429 16 262 3.2 9.7 0.00 0.03 0.03 75 1048.3
20260508072418 16 272 3.2 9.7 0.00 0.03 0.03 75 1048.3
20260508072144 16 272 3.2 9.7 0.00 0.03 0.03 74 1048.3
20260508072137 16 272 3.2 9.7 0.00 0.03 0.03 74 1048.3
20260508071802 16 273 3.2 9.7 0.00 0.03 0.03 74 1048.3
20260508071748 16 272 1.6 9.7 0.00 0.03 0.03 74 1048.3
20260508071738 16 272 1.6 9.7 0.00 0.03 0.03 74 1048.3
20260508071502 16 272 1.6 9.7 0.00 0.03 0.03 74 1048.2
20260508071433 16 273 1.6 9.7 0.00 0.03 0.03 75 1048.2
20260508071425 16 274 1.6 4.8 0.00 0.03 0.03 75 1048.2
20260508071100 16 275 1.6 3.2 0.00 0.03 0.03 76 1048.2
20260508071012 16 275 1.6 3.2 0.00 0.03 0.03 76 1048.1
20260508071001 16 276 1.6 3.2 0.00 0.03 0.03 76 1048.1
20260508070903 16 275 1.6 3.2 0.00 0.03 0.03 76 1048.1
20260508070800 16 275 1.6 3.2 0.00 0.03 0.03 77 1048.1
20260508070700 16 275 1.6 3.2 0.00 0.03 0.03 77 1048.1
20260508070600 16 275 1.6 4.8 0.00 0.03 0.03 77 1048.1
20260508070512 15 275 1.6 4.8 0.00 0.03 0.03 77 1048.1
20260508070501 15 275 1.6 4.8 0.00 0.03 0.03 77 1048.1
20260508070358 15 275 1.6 4.8 0.00 0.03 0.03 77 1048.1
20260508070258 15 275 1.6 4.8 0.00 0.03 0.03 77 1048.1
20260508070158 15 275 1.6 4.8 0.00 0.03 0.03 78 1048.0
20260508070138 15 275 3.2 4.8 0.00 0.03 0.03 78 1048.1
20260508070126 15 275 3.2 6.4 0.00 0.03 0.03 78 1048.1
20260508070118 15 275 3.2 6.4 0.00 0.03 0.03 78 1048.1
20260508070104 15 276 3.2 6.4 0.00 0.03 0.03 79 1048.0
20260508070053 15 275 3.2 6.4 0.00 0.03 0.03 79 1048.0
20260508070044 15 275 3.2 6.4 0.00 0.03 0.03 79 1048.0
20260508070025 15 275 3.2 6.4 0.00 0.03 0.03 79 1048.0
20260508070018 15 275 3.2 6.4 0.00 0.03 0.03 80 1048.0
20260508070008 15 275 3.2 6.4 0.00 0.03 0.03 80 1048.0
20260508065746 15 275 3.2 6.4 0.00 0.03 0.03 80 1047.9
20260508065037 14 275 1.6 6.4 0.00 0.03 0.03 81 1047.9
20260508065030 14 275 1.6 6.4 0.00 0.03 0.03 82 1047.9
20260508065004 14 275 1.6 6.4 0.00 0.03 0.03 82 1047.9
20260508064511 14 275 1.6 4.8 0.00 0.03 0.03 83 1048.0
20260508064501 13 275 1.6 4.8 0.00 0.03 0.03 84 1047.9
20260508064448 13 275 1.6 4.8 0.00 0.03 0.03 84 1048.0
20260508064436 13 275 3.2 4.8 0.00 0.03 0.03 85 1047.9
20260508064426 13 275 3.2 4.8 0.00 0.03 0.03 85 1047.9
20260508064200 13 275 3.2 4.8 0.00 0.03 0.03 85 1047.9
20260508064149 13 275 3.2 4.8 0.00 0.03 0.03 85 1047.9
20260508064142 13 275 3.2 4.8 0.00 0.03 0.03 85 1047.9
20260508064131 13 276 3.2 4.8 0.00 0.03 0.03 86 1047.9
20260508064122 13 275 1.6 4.8 0.00 0.03 0.03 86 1047.9
20260508064112 13 276 3.2 4.8 0.00 0.03 0.03 86 1047.9
20260508063839 13 276 3.2 6.4 0.00 0.03 0.03 86 1047.9
20260508063831 12 275 3.2 6.4 0.00 0.03 0.03 86 1047.9
20260508063605 12 275 1.6 6.4 0.00 0.03 0.03 86 1047.9
20260508063338 12 275 1.6 6.4 0.00 0.03 0.03 87 1047.8
20260508062543 12 275 1.6 6.4 0.00 0.03 0.03 87 1047.8
20260508062508 12 275 1.6 6.4 0.00 0.03 0.03 87 1047.8
20260508062444 12 275 1.6 6.4 0.00 0.03 0.03 87 1047.8
20260508062344 12 274 1.6 4.8 0.00 0.03 0.03 87 1047.8
20260508062326 12 274 1.6 4.8 0.00 0.03 0.03 88 1047.8
20260508062320 12 275 3.2 4.8 0.00 0.03 0.03 88 1047.8
20260508062044 12 274 3.2 4.8 0.00 0.03 0.03 88 1047.8
20260508062037 12 275 3.2 4.8 0.00 0.03 0.03 88 1047.8
20260508062015 12 274 3.2 4.8 0.00 0.03 0.03 88 1047.8
20260508061640 11 275 3.2 4.8 0.00 0.03 0.03 89 1047.8
20260508061541 11 274 3.2 4.8 0.00 0.03 0.03 89 1047.8
20260508061505 11 274 3.2 4.8 0.00 0.03 0.03 89 1047.8
20260508061440 11 274 3.2 4.8 0.00 0.03 0.03 89 1047.8
20260508061340 11 274 3.2 4.8 0.00 0.03 0.03 90 1047.7
20260508061240 11 274 3.2 6.4 0.00 0.03 0.03 90 1047.7
20260508061140 11 274 3.2 6.4 0.00 0.03 0.03 90 1047.7
20260508061126 11 275 3.2 6.4 0.00 0.03 0.03 90 1047.8
20260508061117 11 274 3.2 6.4 0.00 0.03 0.03 90 1047.8
20260508061110 11 274 3.2 6.4 0.00 0.03 0.03 90 1047.8
20260508060742 11 274 3.2 6.4 0.00 0.03 0.03 90 1047.8
20260508060640 11 274 3.2 6.4 0.00 0.03 0.03 90 1047.9
20260508060616 11 274 4.8 6.4 0.00 0.03 0.03 90 1047.8
20260508060602 11 275 4.8 6.4 0.00 0.03 0.03 90 1047.7
20260508060248 10 274 4.8 9.7 0.00 0.03 0.03 91 1047.7
20260508060240 10 274 4.8 9.7 0.00 0.03 0.03 91 1047.7
20260508060225 10 274 4.8 9.7 0.00 0.03 0.03 91 1047.7
20260508055940 10 275 4.8 9.7 0.00 0.03 0.03 91 1047.7
20260508055909 10 275 4.8 9.7 0.00 0.03 0.03 91 1047.7
20260508055901 10 274 4.8 9.7 0.00 0.03 0.03 91 1047.7
20260508055541 10 274 4.8 9.7 0.00 0.03 0.03 91 1047.7
20260508055504 10 275 4.8 9.7 0.00 0.03 0.03 91 1047.7
20260508055440 10 274 4.8 9.7 0.00 0.03 0.03 91 1047.7
20260508055340 10 274 4.8 9.7 0.00 0.03 0.03 91 1047.7
20260508055311 10 274 4.8 9.7 0.00 0.03 0.03 91 1047.7
20260508055306 10 274 4.8 9.7 0.00 0.03 0.03 91 1047.7
20260508055244 10 274 4.8 9.7 0.00 0.03 0.03 92 1047.7
20260508055012 10 275 4.8 9.7 0.00 0.03 0.03 91 1047.8
20260508055003 10 274 4.8 9.7 0.00 0.03 0.03 91 1047.7
20260508054951 10 275 4.8 9.7 0.00 0.03 0.03 92 1047.7
20260508054930 10 274 4.8 11.3 0.00 0.03 0.03 92 1047.7
20260508054700 9 275 4.8 11.3 0.00 0.03 0.03 92 1047.8
20260508054336 9 274 6.4 11.3 0.00 0.03 0.03 92 1047.7
20260508054236 9 275 6.4 11.3 0.00 0.03 0.03 92 1047.7
20260508054136 9 275 6.4 11.3 0.00 0.03 0.03 92 1047.7
20260508054039 9 274 6.4 11.3 0.00 0.03 0.03 92 1047.7
20260508054004 9 274 6.4 11.3 0.00 0.03 0.03 92 1047.7
20260508053936 9 275 6.4 11.3 0.00 0.03 0.03 92 1047.8
20260508053836 9 274 4.8 11.3 0.00 0.03 0.03 92 1047.8
20260508053815 9 274 4.8 11.3 0.00 0.03 0.03 92 1047.9
20260508053807 8 273 4.8 11.3 0.00 0.03 0.03 92 1047.9
20260508053511 8 272 4.8 11.3 0.00 0.03 0.03 92 1047.9
20260508053436 8 272 4.8 11.3 0.00 0.03 0.03 92 1047.9
20260508053336 8 272 4.8 11.3 0.00 0.03 0.03 92 1047.9
20260508053309 8 272 3.2 6.4 0.00 0.03 0.03 92 1047.9
20260508053301 8 272 3.2 6.4 0.00 0.03 0.03 92 1047.9
20260508053005 8 271 3.2 6.4 0.00 0.03 0.03 92 1047.9
20260508052938 8 272 3.2 6.4 0.00 0.03 0.03 92 1047.9
20260508052836 8 272 4.8 6.4 0.00 0.03 0.03 91 1047.9
20260508052736 8 272 4.8 9.7 0.00 0.03 0.03 91 1047.9
20260508052718 8 271 4.8 9.7 0.00 0.03 0.03 91 1047.9
20260508052656 8 272 4.8 9.7 0.00 0.03 0.03 91 1047.8
20260508052336 8 272 4.8 9.7 0.00 0.03 0.03 91 1047.9
20260508052236 8 271 4.8 9.7 0.00 0.03 0.03 91 1047.8
20260508052140 8 271 4.8 9.7 0.00 0.03 0.03 91 1047.8
20260508052037 8 272 4.8 9.7 0.00 0.03 0.03 91 1047.8
20260508052006 8 272 4.8 9.7 0.00 0.03 0.03 91 1047.8
20260508051936 8 272 4.8 9.7 0.00 0.03 0.03 91 1047.8
20260508051916 8 272 4.8 9.7 0.00 0.03 0.03 91 1047.8
20260508051907 8 272 4.8 9.7 0.00 0.03 0.03 91 1047.8
20260508051608 8 271 4.8 6.4 0.00 0.03 0.03 91 1047.8
20260508051601 8 271 4.8 6.4 0.00 0.03 0.03 91 1047.8
20260508051236 8 271 3.2 6.4 0.00 0.03 0.03 91 1047.8
20260508051135 8 271 3.2 6.4 0.00 0.03 0.03 91 1047.8
20260508051037 8 271 3.2 6.4 0.00 0.03 0.03 91 1047.8
20260508051006 8 271 3.2 6.4 0.00 0.03 0.03 91 1047.8
20260508050938 8 271 3.2 6.4 0.00 0.03 0.03 91 1047.8
20260508050903 8 271 3.2 6.4 0.00 0.03 0.03 91 1047.8
20260508050853 8 271 3.2 4.8 0.00 0.03 0.03 91 1047.8
20260508050504 8 271 3.2 4.8 0.00 0.03 0.03 91 1047.7
20260508050432 8 271 3.2 4.8 0.00 0.03 0.03 91 1047.7
20260508050331 8 271 3.2 4.8 0.00 0.03 0.03 91 1047.7
20260508050242 8 271 3.2 6.4 0.00 0.03 0.03 90 1047.7
20260508050232 8 271 3.2 6.4 0.00 0.03 0.03 90 1047.7
20260508050211 8 271 3.2 6.4 0.00 0.03 0.03 90 1047.7
20260508045944 8 271 3.2 6.4 0.00 0.03 0.03 90 1047.7
20260508045621 8 271 3.2 6.4 0.00 0.03 0.03 91 1047.6
20260508045520 8 271 4.8 6.4 0.00 0.03 0.03 90 1047.6
20260508045501 8 270 4.8 6.4 0.00 0.03 0.03 90 1047.6
20260508045421 8 270 4.8 6.4 0.00 0.03 0.03 90 1047.6
20260508045320 8 271 4.8 6.4 0.00 0.03 0.03 90 1047.7
20260508045243 8 270 4.8 6.4 0.00 0.03 0.03 91 1047.6
20260508045234 8 271 3.2 6.4 0.00 0.03 0.03 91 1047.6
20260508045217 8 271 3.2 6.4 0.00 0.03 0.03 91 1047.6
20260508044917 8 271 3.2 6.4 0.00 0.03 0.03 91 1047.6
20260508044815 8 270 3.2 6.4 0.00 0.03 0.03 91 1047.6
20260508044715 8 270 3.2 6.4 0.00 0.03 0.03 91 1047.6
20260508044612 8 270 3.2 6.4 0.00 0.03 0.03 91 1047.5
20260508044547 8 270 1.6 6.4 0.00 0.03 0.03 90 1047.5
20260508044529 8 270 1.6 6.4 0.00 0.03 0.03 90 1047.5
20260508044515 8 270 1.6 6.4 0.00 0.03 0.03 90 1047.4
20260508044507 8 270 1.6 4.8 0.00 0.03 0.03 90 1047.4
20260508044006 8 270 0.0 3.2 0.00 0.03 0.03 90 1047.4
20260508043947 8 270 0.0 3.2 0.00 0.03 0.03 90 1047.4
20260508043720 8 270 0.0 3.2 0.00 0.03 0.03 91 1047.4
20260508043706 8 270 1.6 3.2 0.00 0.03 0.03 91 1047.4
20260508043649 8 270 1.6 3.2 0.00 0.03 0.03 91 1047.4
20260508043416 8 270 1.6 4.8 0.00 0.03 0.03 91 1047.4
20260508043406 9 270 1.6 4.8 0.00 0.03 0.03 91 1047.4
20260508043143 9 271 1.6 4.8 0.00 0.03 0.03 91 1047.3
20260508043132 9 270 1.6 4.8 0.00 0.03 0.03 91 1047.3
20260508043122 9 270 1.6 4.8 0.00 0.03 0.03 91 1047.3
20260508043114 9 270 1.6 4.8 0.00 0.03 0.03 91 1047.3
20260508042847 9 270 1.6 6.4 0.00 0.03 0.03 91 1047.3
20260508042831 9 270 1.6 6.4 0.00 0.03 0.03 91 1047.3
20260508042821 9 270 1.6 6.4 0.00 0.03 0.03 91 1047.3
20260508042328 9 270 3.2 6.4 0.00 0.03 0.03 91 1047.2
20260508042055 9 270 3.2 6.4 0.03 0.03 0.03 91 1047.3
20260508041827 9 270 3.2 6.4 0.03 0.03 0.03 91 1047.3
20260508041815 9 270 3.2 6.4 0.03 0.03 0.03 91 1047.2
20260508041750 9 270 4.8 6.4 0.03 0.03 0.03 90 1047.3
20260508041528 9 270 4.8 9.7 0.03 0.03 0.03 90 1047.2
20260508041203 9 270 4.8 9.7 0.03 0.03 0.03 90 1047.2
20260508041103 9 270 4.8 9.7 0.03 0.03 0.03 90 1047.2
20260508041023 9 270 4.8 9.7 0.03 0.03 0.03 90 1047.2
20260508041002 9 270 4.8 9.7 0.03 0.03 0.03 90 1047.2
20260508040954 9 270 4.8 9.7 0.03 0.03 0.03 90 1047.2
20260508040946 9 270 4.8 9.7 0.03 0.03 0.03 90 1047.2
20260508040933 9 270 4.8 9.7 0.03 0.03 0.03 90 1047.2
20260508040652 9 270 3.2 6.4 0.03 0.03 0.03 91 1047.2
20260508040645 9 270 3.2 6.4 0.03 0.03 0.03 91 1047.2
20260508040418 9 270 3.2 6.4 0.03 0.03 0.03 91 1047.1
20260508035901 9 270 3.2 6.4 0.03 0.03 0.03 91 1047.2
20260508035835 9 271 3.2 6.4 0.03 0.03 0.03 91 1047.2
20260508035826 9 270 3.2 6.4 0.03 0.03 0.03 91 1047.2
20260508035450 9 270 3.2 6.4 0.03 0.03 0.03 91 1047.2
20260508035434 9 270 3.2 6.4 0.03 0.03 0.03 91 1047.1
20260508035351 9 271 3.2 6.4 0.03 0.03 0.03 91 1047.1
20260508035312 9 270 3.2 6.4 0.03 0.03 0.03 91 1047.1
20260508035306 9 270 3.2 6.4 0.03 0.03 0.03 91 1047.2
20260508034945 9 270 3.2 6.4 0.03 0.03 0.03 91 1047.1
20260508034933 9 271 3.2 9.7 0.03 0.03 0.03 91 1047.1
20260508034844 9 271 3.2 9.7 0.03 0.03 0.03 91 1047.1
20260508034745 9 271 4.8 9.7 0.03 0.03 0.03 91 1047.1
20260508034644 9 271 3.2 9.7 0.03 0.03 0.03 91 1047.1
20260508034544 9 271 3.2 9.7 0.03 0.03 0.03 91 1047.1
20260508034512 9 271 3.2 9.7 0.03 0.03 0.03 91 1047.1
20260508034459 9 272 3.2 9.7 0.03 0.03 0.03 91 1047.1
20260508034136 9 271 3.2 9.7 0.03 0.03 0.03 91 1047.0
20260508034118 9 271 3.2 9.7 0.03 0.03 0.03 91 1047.1
20260508034102 9 271 3.2 9.7 0.03 0.03 0.03 91 1047.1
20260508033736 9 270 3.2 6.4 0.03 0.03 0.03 91 1047.0
20260508033636 9 270 3.2 9.7 0.03 0.03 0.03 91 1047.1
20260508033536 9 270 3.2 9.7 0.03 0.03 0.03 91 1047.1
20260508033432 9 270 4.8 9.7 0.03 0.03 0.03 91 1047.1
20260508033334 9 270 4.8 9.7 0.03 0.03 0.03 91 1047.1
20260508033233 9 270 4.8 9.7 0.03 0.03 0.03 91 1047.2
20260508033132 9 270 3.2 9.7 0.03 0.03 0.03 91 1047.1
20260508033033 9 270 3.2 9.7 0.03 0.03 0.03 91 1047.1
20260508032934 9 270 3.2 9.7 0.03 0.03 0.03 91 1047.2
20260508032830 9 270 3.2 9.7 0.03 0.03 0.03 91 1047.2
20260508032730 9 270 3.2 9.7 0.03 0.03 0.03 91 1047.2
20260508032708 9 270 3.2 6.4 0.03 0.03 0.03 91 1047.2
20260508032700 9 270 3.2 6.4 0.03 0.03 0.03 91 1047.2
20260508032432 9 270 3.2 6.4 0.03 0.03 0.03 91 1047.2
20260508032327 9 270 3.2 6.4 0.03 0.03 0.03 91 1047.2
20260508032225 9 270 3.2 6.4 0.03 0.03 0.03 91 1047.2
20260508032124 9 270 3.2 6.4 0.03 0.03 0.03 91 1047.3
20260508032028 9 270 3.2 6.4 0.03 0.03 0.00 90 1047.2
20260508031935 9 270 3.2 6.4 0.03 0.03 0.00 90 1047.2
20260508031924 9 270 3.2 6.4 0.00 0.00 0.00 90 1047.2
20260508031820 9 270 3.2 6.4 0.00 0.00 0.00 90 1047.2
20260508031719 9 270 3.2 6.4 0.00 0.00 0.00 90 1047.3
20260508031619 9 270 3.2 6.4 0.00 0.00 0.00 90 1047.2
20260508031558 9 270 3.2 6.4 0.00 0.00 0.00 90 1047.3
20260508031540 9 270 3.2 6.4 0.00 0.00 0.00 90 1047.2
20260508031533 9 270 3.2 6.4 0.00 0.00 0.00 90 1047.3
20260508031525 9 270 3.2 6.4 0.00 0.00 0.00 90 1047.3
20260508031516 9 270 3.2 6.4 0.00 0.00 0.00 90 1047.3
20260508031029 9 270 3.2 4.8 0.00 0.00 0.00 91 1047.3
20260508031009 10 270 3.2 4.8 0.00 0.00 0.00 90 1047.3
20260508030741 10 270 3.2 6.4 0.00 0.00 0.00 90 1047.3
20260508030729 10 270 3.2 6.4 0.00 0.00 0.00 90 1047.3
20260508030708 10 270 3.2 6.4 0.00 0.00 0.00 90 1047.4
20260508030700 10 270 3.2 6.4 0.00 0.00 0.00 90 1047.3
20260508030435 10 270 3.2 6.4 0.00 0.00 0.00 90 1047.3
20260508030424 10 270 3.2 6.4 0.00 0.00 0.00 90 1047.3
20260508030417 10 270 3.2 6.4 0.00 0.00 0.00 90 1047.4
20260508030404 10 270 3.2 6.4 0.00 0.00 0.00 90 1047.4
20260508030356 10 270 3.2 6.4 0.00 0.00 0.00 90 1047.3
20260508030348 10 270 3.2 6.4 0.00 0.00 0.00 90 1047.3
20260508030340 10 270 1.6 4.8 0.00 0.00 0.00 90 1047.3
20260508025856 10 270 1.6 4.8 0.00 0.00 0.00 90 1047.4
20260508025148 10 270 3.2 6.4 0.00 0.00 0.00 90 1047.3
20260508024850 10 270 3.2 6.4 0.00 0.00 0.00 90 1047.4
20260508024751 10 270 3.2 6.4 0.00 0.00 0.00 90 1047.3
20260508024650 10 270 3.2 6.4 0.00 0.00 0.00 90 1047.3
20260508024551 10 270 3.2 6.4 0.00 0.00 0.00 90 1047.3
20260508024436 10 270 3.2 6.4 0.00 0.00 0.00 90 1047.3
20260508024416 10 270 3.2 6.4 0.00 0.00 0.00 90 1047.3
20260508024408 10 270 3.2 6.4 0.00 0.00 0.00 90 1047.3
20260508024120 10 272 1.6 6.4 0.00 0.00 0.00 91 1047.3
20260508024056 10 271 1.6 6.4 0.00 0.00 0.00 91 1047.4
20260508024048 10 271 1.6 6.4 0.00 0.00 0.00 91 1047.3
20260508024034 10 272 1.6 4.8 0.00 0.00 0.00 91 1047.3
20260508023808 10 272 1.6 4.8 0.00 0.00 0.00 91 1047.3
20260508023756 10 272 1.6 4.8 0.00 0.00 0.00 91 1047.3
20260508023741 10 272 1.6 3.2 0.00 0.00 0.00 91 1047.3
20260508023723 10 272 1.6 3.2 0.00 0.00 0.00 91 1047.4
20260508023456 10 272 1.6 4.8 0.00 0.00 0.00 91 1047.4
20260508023217 10 272 1.6 4.8 0.00 0.00 0.00 90 1047.3
20260508022638 10 271 1.6 4.8 0.00 0.00 0.00 91 1047.4
20260508022539 10 272 1.6 4.8 0.00 0.00 0.00 91 1047.4
20260508022435 10 272 1.6 4.8 0.00 0.00 0.00 91 1047.4
20260508022422 10 272 1.6 4.8 0.00 0.00 0.00 91 1047.4
20260508022411 10 272 1.6 4.8 0.00 0.00 0.00 91 1047.5
20260508022142 10 272 1.6 4.8 0.00 0.00 0.00 91 1047.4
20260508022123 10 271 1.6 4.8 0.00 0.00 0.00 91 1047.5
20260508022110 10 272 1.6 4.8 0.00 0.00 0.00 91 1047.5
20260508021530 10 272 1.6 4.8 0.00 0.00 0.00 91 1047.5
20260508021433 10 272 1.6 4.8 0.00 0.00 0.00 91 1047.5
20260508021330 10 272 1.6 4.8 0.00 0.00 0.00 91 1047.5
20260508021230 10 272 1.6 4.8 0.00 0.00 0.00 91 1047.5
20260508021130 10 272 1.6 4.8 0.00 0.00 0.00 91 1047.5
20260508021030 10 272 1.6 4.8 0.00 0.00 0.00 90 1047.5
20260508020934 10 272 1.6 4.8 0.00 0.00 0.00 90 1047.5
20260508020831 10 272 1.6 4.8 0.00 0.00 0.00 90 1047.5
20260508020821 10 272 1.6 4.8 0.00 0.00 0.00 90 1047.5
20260508020815 10 272 3.2 4.8 0.00 0.00 0.00 90 1047.5
20260508020807 10 272 3.2 4.8 0.00 0.00 0.00 90 1047.5
20260508020747 10 272 3.2 4.8 0.00 0.00 0.00 90 1047.5
20260508020733 10 272 3.2 4.8 0.00 0.00 0.00 90 1047.5
20260508015925 10 272 3.2 4.8 0.00 0.00 0.00 90 1047.6
20260508015824 10 272 1.6 9.7 0.00 0.00 0.00 90 1047.5
20260508015725 10 272 1.6 9.7 0.00 0.00 0.00 90 1047.6
20260508015622 10 272 1.6 9.7 0.00 0.00 0.00 90 1047.6
20260508015606 10 272 1.6 9.7 0.00 0.00 0.00 90 1047.6
20260508015545 10 272 1.6 9.7 0.00 0.00 0.00 90 1047.6
20260508015218 10 272 1.6 9.7 0.00 0.00 0.00 90 1047.7
20260508015116 10 272 3.2 9.7 0.00 0.00 0.00 90 1047.6
20260508015012 10 272 3.2 9.7 0.00 0.00 0.00 90 1047.7
20260508014912 10 271 3.2 6.4 0.00 0.00 0.00 90 1047.7
20260508014814 10 270 3.2 9.7 0.00 0.00 0.00 90 1047.7
20260508014713 10 271 3.2 9.7 0.00 0.00 0.00 90 1047.7
20260508014612 10 271 3.2 9.7 0.00 0.00 0.00 90 1047.7
20260508014510 10 270 3.2 9.7 0.00 0.00 0.00 90 1047.7
20260508014410 10 271 3.2 9.7 0.00 0.00 0.00 90 1047.8
20260508014314 10 271 3.2 9.7 0.00 0.00 0.00 90 1047.8
20260508014211 10 271 3.2 9.7 0.00 0.00 0.00 90 1047.7
20260508014116 10 271 3.2 9.7 0.00 0.00 0.00 90 1047.8
20260508014008 10 271 3.2 9.7 0.00 0.00 0.00 90 1047.8
20260508013932 10 271 3.2 9.7 0.00 0.00 0.00 90 1047.7
20260508013909 10 270 3.2 9.7 0.00 0.00 0.00 90 1047.7
20260508013807 10 271 3.2 6.4 0.00 0.00 0.00 90 1047.7
20260508013736 10 271 3.2 6.4 0.00 0.00 0.00 90 1047.7
20260508013728 10 271 3.2 6.4 0.00 0.00 0.00 90 1047.7
20260508013433 10 270 3.2 6.4 0.00 0.00 0.00 90 1047.7
20260508013413 10 271 3.2 6.4 0.00 0.00 0.00 90 1047.7
20260508013310 10 270 3.2 6.4 0.00 0.00 0.00 90 1047.7
20260508013203 10 271 3.2 6.4 0.00 0.00 0.00 90 1047.7
20260508013104 10 271 3.2 6.4 0.00 0.00 0.00 90 1047.8
20260508013002 10 271 1.6 6.4 0.00 0.00 0.00 90 1047.8
20260508012934 10 272 1.6 6.4 0.00 0.00 0.00 90 1047.8
20260508012903 10 271 1.6 6.4 0.00 0.00 0.00 90 1047.8
20260508012802 10 271 3.2 6.4 0.00 0.00 0.00 90 1047.9
20260508012703 10 271 3.2 6.4 0.00 0.00 0.00 90 1047.8
20260508012623 10 271 1.6 6.4 0.00 0.00 0.00 90 1047.9
20260508012615 10 272 1.6 6.4 0.00 0.00 0.00 90 1047.9
20260508012603 10 271 1.6 6.4 0.00 0.00 0.00 90 1047.9
20260508012552 11 271 1.6 6.4 0.00 0.00 0.00 90 1047.9
20260508012542 11 271 1.6 6.4 0.00 0.00 0.00 90 1047.9
20260508012002 11 271 1.6 4.8 0.00 0.00 0.00 90 1047.9
20260508011904 11 271 1.6 4.8 0.00 0.00 0.00 90 1048.0
20260508011802 11 271 1.6 4.8 0.00 0.00 0.00 90 1048.0
20260508011751 11 271 1.6 4.8 0.00 0.00 0.00 90 1048.0
20260508011743 11 271 3.2 4.8 0.00 0.00 0.00 90 1048.0
20260508011731 11 271 3.2 4.8 0.00 0.00 0.00 90 1048.0
20260508011504 11 271 3.2 4.8 0.00 0.00 0.00 90 1048.0
20260508011455 11 272 3.2 4.8 0.00 0.00 0.00 90 1048.1
20260508011447 11 271 3.2 6.4 0.00 0.00 0.00 90 1048.1
20260508011436 11 271 3.2 6.4 0.00 0.00 0.00 90 1048.0
20260508011423 11 271 3.2 6.4 0.00 0.00 0.00 90 1048.1
20260508011406 11 271 3.2 6.4 0.00 0.00 0.00 90 1048.1
20260508011144 11 272 3.2 6.4 0.00 0.00 0.00 90 1048.1
20260508011136 11 271 3.2 6.4 0.00 0.00 0.00 90 1048.1
20260508011123 11 271 3.2 6.4 0.00 0.00 0.00 90 1048.1
20260508011108 11 271 3.2 6.4 0.00 0.00 0.00 90 1048.1
20260508011044 11 271 3.2 6.4 0.00 0.00 0.00 90 1048.1
20260508010551 11 271 1.6 6.4 0.00 0.00 0.00 90 1048.1
20260508010543 11 271 3.2 6.4 0.00 0.00 0.00 90 1048.1
20260508005834 11 272 3.2 9.7 0.00 0.00 0.00 90 1048.1
20260508005606 11 271 3.2 9.7 0.00 0.00 0.00 90 1048.2
20260508005550 11 271 3.2 9.7 0.00 0.00 0.00 90 1048.2
20260508005326 11 271 3.2 9.7 0.00 0.00 0.00 90 1048.2
20260508005056 11 271 3.2 9.7 0.00 0.00 0.00 90 1048.2
20260508005048 11 271 3.2 11.3 0.00 0.00 0.00 90 1048.2
20260508005035 11 271 3.2 11.3 0.00 0.00 0.00 90 1048.2
20260508004811 11 266 3.2 11.3 0.00 0.00 0.00 90 1048.2
20260508004524 11 269 3.2 11.3 0.00 0.00 0.00 90 1048.2
20260508004517 11 268 3.2 11.3 0.00 0.00 0.00 90 1048.2
20260508004506 11 269 3.2 11.3 0.00 0.00 0.00 90 1048.2
20260508004210 11 269 3.2 11.3 0.00 0.00 0.00 90 1048.2
20260508004203 11 269 1.6 11.3 0.00 0.00 0.00 90 1048.2
20260508003931 11 292 1.6 8.0 0.00 0.00 0.00 90 1048.2
20260508003838 11 292 1.6 8.0 0.00 0.00 0.00 90 1048.2
20260508003822 11 292 1.6 8.0 0.00 0.00 0.00 90 1048.1
20260508003815 11 291 1.6 8.0 0.00 0.00 0.00 90 1048.2
20260508003754 11 297 1.6 6.4 0.00 0.00 0.00 90 1048.1
20260508003744 11 297 1.6 6.4 0.00 0.00 0.00 90 1048.2
20260508003517 11 223 1.6 4.8 0.00 0.00 0.00 90 1048.2
20260508003136 11 223 1.6 6.4 0.00 0.00 0.00 90 1048.3
20260508003119 11 222 1.6 6.4 0.00 0.00 0.00 90 1048.2
20260508003108 11 223 1.6 6.4 0.00 0.00 0.00 90 1048.3
20260508003102 11 222 1.6 6.4 0.00 0.00 0.00 90 1048.3
20260508003046 11 223 1.6 6.4 0.00 0.00 0.00 90 1048.3
20260508003037 11 223 1.6 6.4 0.00 0.00 0.00 90 1048.3
20260508003032 11 223 1.6 6.4 0.00 0.00 0.00 90 1048.3
20260508003022 11 223 1.6 6.4 0.00 0.00 0.00 90 1048.3
20260508002754 11 223 1.6 6.4 0.00 0.00 0.00 90 1048.3
20260508002519 11 222 1.6 6.4 0.00 0.00 0.00 90 1048.3
20260508002510 11 222 1.6 6.4 0.00 0.00 0.00 90 1048.3
20260508002225 11 222 1.6 6.4 0.00 0.00 0.00 90 1048.3
20260508002217 11 222 1.6 6.4 0.00 0.00 0.00 90 1048.3
20260508001950 11 222 1.6 6.4 0.00 0.00 0.00 90 1048.3
20260508001943 11 222 1.6 6.4 0.00 0.00 0.00 90 1048.3
20260508001927 11 222 1.6 6.4 0.00 0.00 0.00 90 1048.3
20260508001918 11 222 1.6 6.4 0.00 0.00 0.00 90 1048.3
20260508001910 11 214 3.2 6.4 0.00 0.00 0.00 90 1048.3
20260508001901 11 214 1.6 6.4 0.00 0.00 0.00 90 1048.4
20260508000934 11 215 1.6 6.4 0.00 0.00 0.00 90 1048.4
20260508000712 11 214 1.6 6.4 0.00 0.00 0.00 90 1048.3
20260508000700 11 214 1.6 6.4 0.00 0.00 0.00 90 1048.4
20260508000653 11 215 1.6 6.4 0.00 0.00 0.00 90 1048.4
20260508000644 11 214 1.6 6.4 0.00 0.00 0.00 90 1048.4
20260508000404 11 215 1.6 6.4 0.00 0.00 0.00 90 1048.4
20260508000357 11 215 1.6 6.4 0.00 0.00 0.00 90 1048.4
20260507235812 11 215 3.2 6.4 0.00 0.00 0.00 90 1048.4
20260507235712 11 215 3.2 6.4 0.00 0.00 0.00 90 1048.4
20260507235610 11 214 3.2 6.4 0.00 0.00 0.00 90 1048.4
20260507235555 11 215 3.2 6.4 0.00 0.00 0.00 90 1048.4
20260507235534 11 215 3.2 6.4 0.00 0.00 0.00 90 1048.5
20260507235207 11 215 3.2 6.4 0.00 0.00 0.00 90 1048.5
20260507235103 11 215 3.2 6.4 0.00 0.00 0.00 90 1048.5
20260507235004 11 215 3.2 6.4 0.00 0.00 0.00 90 1048.5
20260507234933 11 215 3.2 6.4 0.00 0.00 0.00 90 1048.5
20260507234905 11 214 3.2 6.4 0.00 0.00 0.00 90 1048.5
20260507234803 11 214 3.2 6.4 0.00 0.00 0.00 90 1048.5
20260507234703 11 215 3.2 6.4 0.00 0.00 0.00 90 1048.5
20260507234604 11 215 3.2 6.4 0.00 0.00 0.00 90 1048.5
20260507234503 11 215 3.2 6.4 0.00 0.00 0.00 90 1048.5
20260507234433 11 215 3.2 6.4 0.00 0.00 0.00 90 1048.5
20260507234404 11 214 3.2 6.4 0.00 0.00 0.00 90 1048.5
20260507234306 11 215 3.2 6.4 0.00 0.00 0.00 90 1048.5
20260507234215 11 215 3.2 6.4 0.00 0.00 0.00 90 1048.5
20260507234206 11 214 3.2 6.4 0.00 0.00 0.00 90 1048.5
20260507234154 11 215 3.2 6.4 0.00 0.00 0.00 90 1048.5
20260507233905 11 215 3.2 6.4 0.00 0.00 0.00 90 1048.5
20260507233803 11 215 3.2 6.4 0.00 0.00 0.00 90 1048.6
20260507233706 11 215 3.2 6.4 0.00 0.00 0.00 90 1048.6
20260507233604 11 215 3.2 6.4 0.00 0.00 0.00 90 1048.6
20260507233503 11 214 3.2 6.4 0.00 0.00 0.00 90 1048.6
20260507233434 11 215 3.2 6.4 0.00 0.00 0.00 90 1048.6
20260507233404 11 214 3.2 6.4 0.00 0.00 0.00 90 1048.6
20260507233303 11 215 3.2 6.4 0.00 0.00 0.00 90 1048.7
20260507233210 11 215 3.2 4.8 0.00 0.00 0.00 90 1048.7
20260507233104 11 214 3.2 4.8 0.00 0.00 0.00 90 1048.7
20260507233003 11 214 3.2 4.8 0.00 0.00 0.00 90 1048.7
20260507232905 11 214 1.6 4.8 0.00 0.00 0.00 90 1048.7
20260507232803 11 214 1.6 4.8 0.00 0.00 0.00 90 1048.7
20260507232703 11 214 1.6 4.8 0.00 0.00 0.00 90 1048.8
20260507232611 11 215 1.6 4.8 0.00 0.00 0.00 90 1048.8
20260507232503 11 215 1.6 4.8 0.00 0.00 0.00 90 1048.8
20260507232432 11 215 1.6 4.8 0.00 0.00 0.00 90 1048.8
20260507232405 11 214 1.6 4.8 0.00 0.00 0.00 90 1048.8
20260507232306 11 214 3.2 4.8 0.00 0.00 0.00 90 1048.8
20260507232203 11 215 3.2 4.8 0.00 0.00 0.00 90 1048.8
20260507232101 11 215 1.6 4.8 0.00 0.00 0.00 90 1048.8
20260507231932 12 215 1.6 4.8 0.00 0.00 0.00 90 1048.8
20260507231859 12 214 1.6 4.8 0.00 0.00 0.00 90 1048.8
20260507231759 12 215 1.6 4.8 0.00 0.00 0.00 90 1048.8
20260507231657 12 215 1.6 4.8 0.00 0.00 0.00 90 1048.8
20260507231551 12 214 1.6 4.8 0.00 0.00 0.00 90 1048.8
20260507231451 12 215 1.6 4.8 0.00 0.00 0.00 90 1048.8
20260507231431 12 214 1.6 4.8 0.00 0.00 0.00 90 1048.8
20260507231352 12 215 1.6 4.8 0.00 0.00 0.00 90 1048.8
20260507231251 12 215 1.6 4.8 0.00 0.00 0.00 90 1048.8
20260507231151 12 215 1.6 4.8 0.00 0.00 0.00 90 1048.8
20260507231126 12 215 3.2 4.8 0.00 0.00 0.00 90 1048.8
20260507231105 12 215 3.2 4.8 0.00 0.00 0.00 90 1049.0
20260507230741 12 214 3.2 4.8 0.00 0.00 0.00 90 1049.0
20260507230641 12 215 3.2 4.8 0.00 0.00 0.00 90 1049.0
20260507230620 12 215 3.2 4.8 0.00 0.00 0.00 90 1049.0
20260507230601 12 215 3.2 4.8 0.00 0.00 0.00 90 1049.1
20260507230238 12 215 3.2 4.8 0.00 0.00 0.00 90 1049.0
20260507230224 12 215 3.2 4.8 0.00 0.00 0.00 90 1049.0
20260507230215 12 214 3.2 4.8 0.00 0.00 0.00 90 1049.0
20260507225931 12 214 3.2 4.8 0.00 0.00 0.00 90 1049.0
20260507225832 12 215 3.2 4.8 0.00 0.00 0.00 90 1049.0
20260507225803 12 214 3.2 4.8 0.00 0.00 0.00 90 1049.0
20260507225755 12 215 3.2 4.8 0.00 0.00 0.00 90 1049.0
20260507225436 12 215 3.2 4.8 0.00 0.00 0.00 90 1049.0
20260507225331 12 215 3.2 4.8 0.00 0.00 0.00 90 1049.0
20260507225232 12 214 1.6 4.8 0.00 0.00 0.00 90 1049.0
20260507225131 12 215 1.6 4.8 0.00 0.00 0.00 90 1049.0
20260507225032 12 215 1.6 4.8 0.00 0.00 0.00 90 1049.0
20260507224936 12 215 1.6 4.8 0.00 0.00 0.00 90 1049.0
20260507224845 12 214 1.6 4.8 0.00 0.00 0.00 90 1049.0
20260507224839 12 214 1.6 3.2 0.00 0.00 0.00 90 1049.0
20260507224826 12 215 1.6 3.2 0.00 0.00 0.00 90 1049.0
20260507224555 12 215 1.6 3.2 0.00 0.00 0.00 90 1049.0
20260507224230 12 214 3.2 4.8 0.00 0.00 0.00 90 1049.0
20260507224130 12 215 3.2 4.8 0.00 0.00 0.00 90 1049.0
20260507224034 12 215 3.2 4.8 0.00 0.00 0.00 90 1049.0
20260507223933 12 215 3.2 4.8 0.00 0.00 0.00 90 1049.1
20260507223831 12 215 1.6 4.8 0.00 0.00 0.00 90 1049.1
20260507223808 12 215 1.6 4.8 0.00 0.00 0.00 90 1049.1
20260507223801 12 215 1.6 4.8 0.00 0.00 0.00 90 1049.1
20260507223747 12 215 1.6 4.8 0.00 0.00 0.00 90 1049.1
20260507223524 12 214 1.6 4.8 0.00 0.00 0.00 90 1049.1
20260507223511 12 215 1.6 3.2 0.00 0.00 0.00 90 1049.1
20260507223503 12 215 1.6 3.2 0.00 0.00 0.00 90 1049.1
20260507223455 12 214 1.6 3.2 0.00 0.00 0.00 90 1049.1
20260507223222 12 214 1.6 3.2 0.00 0.00 0.00 91 1049.1
20260507222958 12 215 1.6 3.2 0.00 0.00 0.00 91 1049.2
20260507222622 12 215 1.6 3.2 0.00 0.00 0.00 91 1049.2
20260507222522 12 215 1.6 3.2 0.00 0.00 0.00 91 1049.2
20260507222422 12 214 1.6 3.2 0.00 0.00 0.00 91 1049.2
20260507222403 12 215 1.6 3.2 0.00 0.00 0.00 90 1049.2
20260507222357 12 215 1.6 3.2 0.00 0.00 0.00 90 1049.2
20260507222344 12 214 1.6 3.2 0.00 0.00 0.00 90 1049.2
20260507222336 11 214 1.6 3.2 0.00 0.00 0.00 90 1049.3
20260507222102 11 215 1.6 3.2 0.00 0.00 0.00 90 1049.2
20260507222051 11 215 1.6 4.8 0.00 0.00 0.00 90 1049.2
20260507222042 11 214 1.6 4.8 0.00 0.00 0.00 90 1049.1
20260507221809 11 215 1.6 4.8 0.00 0.00 0.00 90 1049.2
20260507221758 12 214 1.6 4.8 0.00 0.00 0.00 90 1049.2
20260507221215 11 215 1.6 4.8 0.00 0.00 0.00 90 1049.2
20260507221116 12 215 1.6 4.8 0.00 0.00 0.00 90 1049.2
20260507221011 12 215 1.6 4.8 0.00 0.00 0.00 90 1049.1
20260507220908 12 215 1.6 4.8 0.00 0.00 0.00 90 1049.2
20260507220808 12 215 1.6 4.8 0.00 0.00 0.00 90 1049.1
20260507220708 12 214 1.6 4.8 0.00 0.00 0.00 90 1049.1
20260507220608 12 214 1.6 4.8 0.00 0.00 0.00 90 1049.1
20260507220506 12 214 1.6 4.8 0.00 0.00 0.00 90 1049.1
20260507220431 12 215 1.6 4.8 0.00 0.00 0.00 90 1049.1
20260507220410 12 214 1.6 4.8 0.00 0.00 0.00 90 1049.1
20260507220306 12 214 3.2 4.8 0.00 0.00 0.00 90 1049.1
20260507220206 12 214 3.2 4.8 0.00 0.00 0.00 90 1049.1
20260507220105 12 215 3.2 4.8 0.00 0.00 0.00 90 1049.1
20260507220008 12 215 3.2 4.8 0.00 0.00 0.00 90 1049.2
20260507215932 12 215 3.2 4.8 0.00 0.00 0.00 90 1049.2
20260507215905 12 214 3.2 4.8 0.00 0.00 0.00 90 1049.2
20260507215804 12 216 3.2 4.8 0.00 0.00 0.00 90 1049.2
20260507215703 12 215 3.2 4.8 0.00 0.00 0.00 90 1049.2
20260507215604 12 215 3.2 4.8 0.00 0.00 0.00 90 1049.2
20260507215504 12 214 3.2 4.8 0.00 0.00 0.00 90 1049.2
20260507215432 12 214 3.2 4.8 0.00 0.00 0.00 90 1049.2
20260507215405 12 215 3.2 4.8 0.00 0.00 0.00 90 1049.2
20260507215307 12 215 3.2 4.8 0.00 0.00 0.00 90 1049.2
20260507215202 12 215 3.2 4.8 0.00 0.00 0.00 90 1049.2
20260507215102 12 215 3.2 4.8 0.00 0.00 0.00 90 1049.3
20260507215002 12 214 3.2 4.8 0.00 0.00 0.00 90 1049.2
20260507214932 12 215 3.2 4.8 0.00 0.00 0.00 90 1049.2
20260507214900 12 215 3.2 4.8 0.00 0.00 0.00 90 1049.2
20260507214759 12 215 3.2 4.8 0.00 0.00 0.00 90 1049.3
20260507214659 12 215 3.2 4.8 0.00 0.00 0.00 90 1049.2
20260507214558 12 214 3.2 4.8 0.00 0.00 0.00 89 1049.3
20260507214458 12 215 3.2 4.8 0.00 0.00 0.00 89 1049.3
20260507214432 12 214 3.2 4.8 0.00 0.00 0.00 89 1049.3
20260507214356 12 215 3.2 4.8 0.00 0.00 0.00 89 1049.3
20260507214256 12 214 3.2 4.8 0.00 0.00 0.00 89 1049.3
20260507214249 12 215 3.2 4.8 0.00 0.00 0.00 89 1049.3
20260507214241 12 215 3.2 4.8 0.00 0.00 0.00 89 1049.3
20260507214233 12 215 3.2 4.8 0.00 0.00 0.00 89 1049.4
20260507214217 12 214 3.2 4.8 0.00 0.00 0.00 89 1049.3
20260507214209 12 214 3.2 4.8 0.00 0.00 0.00 89 1049.3
20260507214156 12 215 3.2 4.8 0.00 0.00 0.00 89 1049.3
20260507214146 12 214 3.2 4.8 0.00 0.00 0.00 89 1049.3
20260507214140 12 215 3.2 4.8 0.00 0.00 0.00 89 1049.3
20260507213655 12 214 3.2 4.8 0.00 0.00 0.00 89 1049.3
20260507213427 12 215 3.2 4.8 0.00 0.00 0.00 89 1049.3
20260507213155 12 214 3.2 4.8 0.00 0.00 0.00 89 1049.3
20260507212849 12 215 3.2 4.8 0.00 0.00 0.00 89 1049.3
20260507212816 12 214 3.2 4.8 0.00 0.00 0.00 89 1049.3
20260507212808 12 214 3.2 4.8 0.00 0.00 0.00 89 1049.3
20260507212757 12 215 3.2 4.8 0.00 0.00 0.00 89 1049.3
20260507212722 12 215 3.2 4.8 0.00 0.00 0.00 89 1049.3
20260507212453 12 215 3.2 4.8 0.00 0.00 0.00 89 1049.3
20260507212447 12 215 3.2 4.8 0.00 0.00 0.00 89 1049.3
20260507212438 12 215 1.6 4.8 0.00 0.00 0.00 89 1049.3
20260507212430 12 216 1.6 4.8 0.00 0.00 0.00 89 1049.3
20260507212202 12 215 1.6 4.8 0.00 0.00 0.00 89 1049.3
20260507211715 12 214 1.6 4.8 0.00 0.00 0.00 89 1049.2
20260507211437 12 215 1.6 6.4 0.00 0.00 0.00 89 1049.2
20260507211356 12 216 1.6 6.4 0.00 0.00 0.00 89 1049.2
20260507211345 12 215 3.2 6.4 0.00 0.00 0.00 89 1049.2
20260507211334 12 215 3.2 6.4 0.00 0.00 0.00 89 1049.2
20260507211101 12 215 3.2 6.4 0.00 0.00 0.00 89 1049.1
20260507210731 12 215 3.2 6.4 0.00 0.00 0.00 89 1049.1
20260507210631 12 215 3.2 6.4 0.00 0.00 0.00 88 1049.1
20260507210611 12 215 3.2 6.4 0.00 0.00 0.00 88 1049.1
20260507210555 12 214 3.2 6.4 0.00 0.00 0.00 88 1049.1
20260507210232 12 215 3.2 4.8 0.00 0.00 0.00 88 1049.1
20260507210131 12 213 3.2 4.8 0.00 0.00 0.00 88 1049.1
20260507210111 12 215 3.2 4.8 0.00 0.00 0.00 88 1049.1
20260507210056 12 214 3.2 4.8 0.00 0.00 0.00 88 1049.1
20260507210022 12 214 3.2 4.8 0.00 0.00 0.00 88 1049.1
20260507205754 12 215 3.2 4.8 0.00 0.00 0.00 88 1049.1
20260507205744 12 215 3.2 4.8 0.00 0.00 0.00 88 1049.1
20260507205717 12 214 3.2 4.8 0.00 0.00 0.00 88 1049.1
20260507205452 12 214 3.2 4.8 0.00 0.00 0.00 88 1049.1
20260507205220 12 215 3.2 4.8 0.00 0.00 0.00 88 1049.1
20260507205212 12 215 3.2 4.8 0.00 0.00 0.00 87 1049.1
20260507205151 13 214 3.2 4.8 0.00 0.00 0.00 87 1049.1
20260507204927 13 215 3.2 4.8 0.00 0.00 0.00 87 1049.1
20260507204918 13 215 3.2 4.8 0.00 0.00 0.00 87 1049.1
20260507204912 13 215 3.2 4.8 0.00 0.00 0.00 87 1049.1
20260507204332 13 214 3.2 4.8 0.00 0.00 0.00 87 1049.1
20260507204231 13 215 3.2 4.8 0.00 0.00 0.00 87 1049.1
20260507204132 13 215 3.2 4.8 0.00 0.00 0.00 87 1049.1
20260507204042 13 215 3.2 4.8 0.00 0.00 0.00 87 1049.1
20260507204023 13 215 3.2 4.8 0.00 0.00 0.00 87 1049.1
20260507203955 13 215 3.2 4.8 0.00 0.00 0.00 87 1049.0
20260507203632 13 215 3.2 4.8 0.00 0.00 0.00 87 1049.0
20260507203532 13 215 1.6 4.8 0.00 0.00 0.00 86 1049.0
20260507203435 13 215 1.6 4.8 0.00 0.00 0.00 86 1049.0
20260507203331 13 214 1.6 4.8 0.00 0.00 0.00 86 1049.0
20260507203232 13 215 1.6 3.2 0.00 0.00 0.00 86 1049.0
20260507203212 13 215 1.6 3.2 0.00 0.00 0.00 86 1049.0
20260507203201 13 215 1.6 3.2 0.00 0.00 0.00 86 1049.0
20260507202934 13 214 0.0 3.2 0.00 0.00 0.00 86 1049.0
20260507202831 13 215 0.0 3.2 0.00 0.00 0.00 86 1049.0
20260507202732 13 214 0.0 3.2 0.00 0.00 0.00 86 1049.0
20260507202632 13 215 0.0 3.2 0.00 0.00 0.00 86 1049.0
20260507202604 13 214 0.0 1.6 0.00 0.00 0.00 86 1049.0
20260507202547 13 214 0.0 0.0 0.00 0.00 0.00 86 1049.0
20260507202530 13 215 0.0 0.0 0.00 0.00 0.00 86 1049.0
20260507202243 13 215 0.0 0.0 0.00 0.00 0.00 85 1049.0
20260507202231 13 215 0.0 1.6 0.00 0.00 0.00 85 1049.0
20260507202214 13 215 0.0 1.6 0.00 0.00 0.00 86 1048.8
20260507201629 13 215 0.0 1.6 0.00 0.00 0.00 85 1048.8
20260507201621 13 214 0.0 1.6 0.00 0.00 0.00 85 1048.8
20260507201558 13 215 0.0 3.2 0.00 0.00 0.00 85 1048.7
20260507201331 13 215 1.6 3.2 0.00 0.00 0.00 85 1048.7
20260507201320 13 215 1.6 3.2 0.00 0.00 0.00 85 1048.7
20260507201310 14 214 1.6 3.2 0.00 0.00 0.00 85 1048.7
20260507201041 14 215 1.6 3.2 0.00 0.00 0.00 85 1048.6
20260507200713 14 215 1.6 3.2 0.00 0.00 0.00 85 1048.5
20260507200629 14 215 1.6 3.2 0.00 0.00 0.00 85 1048.5
20260507200623 14 214 0.0 3.2 0.00 0.00 0.00 85 1048.5
20260507200612 14 214 0.0 3.2 0.00 0.00 0.00 85 1048.5
20260507200559 14 215 0.0 3.2 0.00 0.00 0.00 85 1048.5
20260507200330 14 215 0.0 3.2 0.00 0.00 0.00 85 1048.5
20260507200007 14 215 0.0 1.6 0.00 0.00 0.00 84 1048.5
20260507195930 14 215 0.0 1.6 0.00 0.00 0.00 84 1048.5
20260507195905 14 214 0.0 1.6 0.00 0.00 0.00 84 1048.5
20260507195806 14 215 0.0 1.6 0.00 0.00 0.00 84 1048.5
20260507195705 14 215 0.0 3.2 0.00 0.00 0.00 84 1048.6
20260507195606 14 214 0.0 3.2 0.00 0.00 0.00 84 1048.6
20260507195505 14 215 0.0 3.2 0.00 0.00 0.00 84 1048.6
20260507195436 14 214 0.0 3.2 0.00 0.00 0.00 84 1048.6
20260507195406 14 215 0.0 3.2 0.00 0.00 0.00 84 1048.6
20260507195306 14 215 0.0 3.2 0.00 0.00 0.00 84 1048.6
20260507195207 14 215 0.0 3.2 0.00 0.00 0.00 83 1048.6
20260507195146 14 215 0.0 3.2 0.00 0.00 0.00 83 1048.6
20260507195138 14 215 0.0 3.2 0.00 0.00 0.00 83 1048.6
20260507195127 14 214 0.0 3.2 0.00 0.00 0.00 83 1048.6
20260507194806 14 214 0.0 3.2 0.00 0.00 0.00 83 1048.6
20260507194703 14 215 0.0 3.2 0.00 0.00 0.00 83 1048.5
20260507194603 15 214 0.0 3.2 0.00 0.00 0.00 83 1048.5
20260507194553 15 214 0.0 3.2 0.00 0.00 0.00 83 1048.5
20260507194541 15 214 1.6 3.2 0.00 0.00 0.00 82 1048.4
20260507194532 15 215 1.6 3.2 0.00 0.00 0.00 82 1048.4
20260507194237 15 215 1.6 3.2 0.00 0.00 0.00 82 1048.4
20260507194228 15 215 1.6 3.2 0.00 0.00 0.00 82 1048.3
20260507193942 15 215 1.6 3.2 0.00 0.00 0.00 82 1048.3
20260507193935 15 215 1.6 3.2 0.00 0.00 0.00 81 1048.3
20260507193928 15 214 1.6 3.2 0.00 0.00 0.00 81 1048.3
20260507193605 15 215 0.0 3.2 0.00 0.00 0.00 81 1048.2
20260507193504 15 215 0.0 3.2 0.00 0.00 0.00 81 1048.2
20260507193418 15 215 0.0 3.2 0.00 0.00 0.00 81 1048.2
20260507193303 15 215 0.0 3.2 0.00 0.00 0.00 81 1048.2
20260507193203 15 214 0.0 1.6 0.00 0.00 0.00 81 1048.2
20260507193104 15 215 0.0 3.2 0.00 0.00 0.00 81 1048.1
20260507193006 15 214 0.0 8.0 0.00 0.00 0.00 81 1048.1
20260507192926 15 215 0.0 8.0 0.00 0.00 0.00 81 1048.1
20260507192902 15 215 0.0 8.0 0.00 0.00 0.00 80 1048.1
20260507192759 15 215 0.0 8.0 0.00 0.00 0.00 80 1048.1
20260507192656 15 214 1.6 8.0 0.00 0.00 0.00 80 1048.0
20260507192554 15 214 1.6 8.0 0.00 0.00 0.00 80 1048.0
20260507192454 15 214 1.6 8.0 0.00 0.00 0.00 80 1048.0
20260507192426 15 215 1.6 8.0 0.00 0.00 0.00 80 1048.0
20260507192354 15 216 1.6 8.0 0.00 0.00 0.00 80 1048.0
20260507192254 15 215 3.2 8.0 0.00 0.00 0.00 80 1047.9
20260507192148 15 214 3.2 8.0 0.00 0.00 0.00 80 1047.9
20260507192131 15 214 3.2 8.0 0.00 0.00 0.00 80 1047.9
20260507192113 15 215 3.2 8.0 0.00 0.00 0.00 80 1047.9
20260507191747 15 215 4.8 8.0 0.00 0.00 0.00 80 1047.9
20260507191649 15 214 4.8 8.0 0.00 0.00 0.00 80 1047.9
20260507191548 15 215 4.8 8.0 0.00 0.00 0.00 79 1047.8
20260507191457 15 215 4.8 8.0 0.00 0.00 0.00 79 1047.8
20260507191444 15 215 4.8 8.0 0.00 0.00 0.00 79 1047.7
20260507191436 15 215 4.8 8.0 0.00 0.00 0.00 79 1047.7
20260507191424 15 214 4.8 8.0 0.00 0.00 0.00 79 1047.7
20260507191416 15 214 4.8 8.0 0.00 0.00 0.00 79 1047.7
20260507191147 16 214 4.8 9.7 0.00 0.00 0.00 79 1047.8
20260507190845 16 214 3.2 9.7 0.00 0.00 0.00 79 1047.8
20260507190745 16 214 3.2 9.7 0.00 0.00 0.00 79 1047.8
20260507190713 16 214 3.2 9.7 0.00 0.00 0.00 78 1047.8
20260507190706 16 213 4.8 9.7 0.00 0.00 0.00 79 1047.9
20260507190427 16 213 4.8 9.7 0.00 0.00 0.00 78 1047.9
20260507190342 16 213 4.8 9.7 0.00 0.00 0.00 78 1047.8
20260507190242 16 213 4.8 11.3 0.00 0.00 0.00 78 1047.8
20260507190207 16 212 4.8 11.3 0.00 0.00 0.00 78 1047.8
20260507190157 16 212 4.8 11.3 0.00 0.00 0.00 78 1047.7
20260507185924 16 212 4.8 11.3 0.00 0.00 0.00 78 1047.8
20260507185832 16 212 4.8 11.3 0.00 0.00 0.00 78 1047.8
20260507185732 16 212 4.8 11.3 0.00 0.00 0.00 77 1047.8
20260507185632 16 212 4.8 11.3 0.00 0.00 0.00 77 1047.8
20260507185532 16 212 4.8 11.3 0.00 0.00 0.00 77 1047.7
20260507185424 16 212 4.8 11.3 0.00 0.00 0.00 77 1047.7
20260507185411 16 212 3.2 11.3 0.00 0.00 0.00 77 1047.7
20260507185403 16 200 3.2 9.7 0.00 0.00 0.00 77 1047.7
20260507185350 16 200 3.2 9.7 0.00 0.00 0.00 77 1047.7
20260507185058 16 199 3.2 9.7 0.00 0.00 0.00 77 1047.7
20260507184731 16 199 4.8 16.1 0.00 0.00 0.00 77 1047.6
20260507184632 16 200 4.8 16.1 0.00 0.00 0.00 76 1047.6
20260507184531 16 199 4.8 16.1 0.00 0.00 0.00 76 1047.6
20260507184435 16 200 4.8 16.1 0.00 0.00 0.00 76 1047.6
20260507184424 16 199 4.8 16.1 0.00 0.00 0.00 76 1047.6
20260507184331 16 199 4.8 16.1 0.00 0.00 0.00 76 1047.6
20260507184232 16 199 6.4 16.1 0.00 0.00 0.00 76 1047.6
20260507184202 16 199 6.4 16.1 0.00 0.00 0.00 76 1047.6
20260507184154 16 200 6.4 16.1 0.00 0.00 0.00 76 1047.5
20260507184143 16 199 6.4 16.1 0.00 0.00 0.00 76 1047.5
20260507183832 16 198 6.4 16.1 0.00 0.00 0.00 75 1047.5
20260507183732 16 192 6.4 11.3 0.00 0.00 0.00 75 1047.5
20260507183632 16 191 6.4 11.3 0.00 0.00 0.00 75 1047.4
20260507183531 16 191 6.4 11.3 0.00 0.00 0.00 75 1047.4
20260507183422 16 191 6.4 11.3 0.00 0.00 0.00 75 1047.3
20260507183331 16 191 6.4 11.3 0.00 0.00 0.00 75 1047.3
20260507183231 16 191 6.4 11.3 0.00 0.00 0.00 75 1047.3
20260507183132 16 191 6.4 11.3 0.00 0.00 0.00 74 1047.2
20260507183036 16 191 8.0 16.1 0.00 0.00 0.00 75 1047.2
20260507183017 16 188 6.4 16.1 0.00 0.00 0.00 75 1047.2
20260507183000 16 187 6.4 16.1 0.00 0.00 0.00 74 1047.2
20260507182953 17 186 6.4 16.1 0.00 0.00 0.00 74 1047.2
20260507182939 17 185 6.4 16.1 0.00 0.00 0.00 74 1047.2
20260507182928 17 183 6.4 16.1 0.00 0.00 0.00 74 1047.2
20260507182918 17 240 6.4 16.1 0.00 0.00 0.00 74 1047.2
20260507182651 17 241 6.4 16.1 0.00 0.00 0.00 73 1047.2
20260507182640 17 241 8.0 16.1 0.00 0.00 0.00 73 1047.2
20260507182634 17 241 8.0 16.1 0.00 0.00 0.00 73 1047.2
20260507182620 17 244 8.0 14.5 0.00 0.00 0.00 73 1047.2
20260507182610 17 231 8.0 14.5 0.00 0.00 0.00 73 1047.2
20260507182342 17 231 8.0 14.5 0.00 0.00 0.00 73 1047.2
20260507182336 17 231 8.0 14.5 0.00 0.00 0.00 73 1047.2
20260507181610 17 230 8.0 16.1 0.00 0.00 0.00 72 1047.2
20260507181344 17 255 8.0 16.1 0.00 0.00 0.00 71 1047.1
20260507181023 17 165 8.0 16.1 0.00 0.00 0.00 71 1047.2
20260507180951 17 237 8.0 16.1 0.00 0.00 0.00 71 1047.0
20260507180938 17 235 8.0 16.1 0.00 0.00 0.00 71 1047.0
20260507180618 17 235 6.4 16.1 0.00 0.00 0.00 70 1047.1
20260507180518 17 249 6.4 16.1 0.00 0.00 0.00 70 1047.0
20260507180421 17 224 6.4 14.5 0.00 0.00 0.00 70 1047.0
20260507180315 17 220 6.4 14.5 0.00 0.00 0.00 69 1047.0
20260507180211 17 221 6.4 14.5 0.00 0.00 0.00 69 1047.0
20260507180112 17 229 4.8 14.5 0.00 0.00 0.00 69 1047.1
20260507180012 17 235 6.4 14.5 0.00 0.00 0.00 69 1047.0
20260507175911 17 253 6.4 12.9 0.00 0.00 0.00 69 1047.0
20260507175811 17 253 6.4 12.9 0.00 0.00 0.00 69 1047.0
20260507175710 17 254 6.4 12.9 0.00 0.00 0.00 68 1047.0
20260507175654 17 253 6.4 12.9 0.00 0.00 0.00 68 1046.9
20260507175643 18 253 6.4 12.9 0.00 0.00 0.00 68 1047.0
20260507175410 18 253 8.0 12.9 0.00 0.00 0.00 68 1046.9
20260507175309 18 256 8.0 12.9 0.00 0.00 0.00 68 1046.9
20260507175207 18 211 8.0 12.9 0.00 0.00 0.00 68 1046.9
20260507175108 18 211 8.0 12.9 0.00 0.00 0.00 67 1046.9
20260507175005 18 210 6.4 12.9 0.00 0.00 0.00 67 1046.9
20260507174906 18 207 6.4 12.9 0.00 0.00 0.00 67 1046.9
20260507174806 18 206 6.4 12.9 0.00 0.00 0.00 67 1046.9
20260507174724 18 206 6.4 12.9 0.00 0.00 0.00 67 1046.9
20260507174715 18 206 6.4 12.9 0.00 0.00 0.00 67 1046.8
20260507174704 18 206 6.4 12.9 0.00 0.00 0.00 67 1046.8
20260507174650 18 206 6.4 12.9 0.00 0.00 0.00 67 1046.8
20260507174424 18 204 4.8 11.3 0.00 0.00 0.00 67 1046.8
20260507174104 18 206 6.4 11.3 0.00 0.00 0.00 67 1046.8
20260507174007 18 189 6.4 14.5 0.00 0.00 0.00 67 1046.8
20260507173903 18 222 6.4 14.5 0.00 0.00 0.00 67 1046.8
20260507173803 18 222 6.4 14.5 0.00 0.00 0.00 67 1046.7
20260507173701 18 223 6.4 14.5 0.00 0.00 0.00 67 1046.8
20260507173631 18 223 6.4 14.5 0.00 0.00 0.00 66 1046.7
20260507173623 18 223 6.4 14.5 0.00 0.00 0.00 66 1046.7
20260507173611 18 223 6.4 14.5 0.00 0.00 0.00 66 1046.8
20260507173252 18 223 6.4 14.5 0.00 0.00 0.00 66 1046.8
20260507173151 18 222 6.4 14.5 0.00 0.00 0.00 65 1046.8
20260507173132 18 226 4.8 14.5 0.00 0.00 0.00 65 1046.8
20260507173124 18 164 4.8 14.5 0.00 0.00 0.00 65 1046.8
20260507173113 18 164 4.8 14.5 0.00 0.00 0.00 64 1046.8
20260507173107 18 164 4.8 14.5 0.00 0.00 0.00 64 1046.8
20260507173057 18 163 4.8 14.5 0.00 0.00 0.00 64 1046.8
20260507173046 18 163 4.8 14.5 0.00 0.00 0.00 63 1046.7
20260507172604 18 219 4.8 14.5 0.00 0.00 0.00 63 1046.7
20260507172307 18 219 6.4 17.7 0.00 0.00 0.00 62 1046.7
20260507172255 18 219 6.4 17.7 0.00 0.00 0.00 62 1046.7
20260507171933 18 220 8.0 17.7 0.00 0.00 0.00 61 1046.7
20260507171909 18 219 8.0 17.7 0.00 0.00 0.00 62 1046.7
20260507171831 18 220 6.4 17.7 0.00 0.00 0.00 62 1046.8
20260507171734 18 214 6.4 17.7 0.00 0.00 0.00 62 1046.7
20260507171633 18 215 6.4 17.7 0.00 0.00 0.00 62 1046.7
20260507171537 18 215 6.4 17.7 0.00 0.00 0.00 62 1046.7
20260507171529 18 216 6.4 17.7 0.00 0.00 0.00 62 1046.7
20260507171519 18 166 6.4 17.7 0.00 0.00 0.00 63 1046.7
20260507171509 18 164 6.4 17.7 0.00 0.00 0.00 63 1046.7
20260507171503 18 152 4.8 12.9 0.00 0.00 0.00 63 1046.7
20260507171454 18 201 4.8 12.9 0.00 0.00 0.00 63 1046.7
20260507171443 18 212 4.8 12.9 0.00 0.00 0.00 63 1046.7
20260507170956 18 194 4.8 9.7 0.00 0.00 0.00 63 1046.7
20260507170632 18 189 6.4 11.3 0.00 0.00 0.00 62 1046.6
20260507170532 18 187 6.4 12.9 0.00 0.00 0.00 61 1046.6
20260507170405 19 186 6.4 16.1 0.00 0.00 0.00 61 1046.6
20260507170353 19 186 6.4 16.1 0.00 0.00 0.00 61 1046.6
20260507170347 19 185 6.4 16.1 0.00 0.00 0.00 60 1046.6
20260507170334 19 204 6.4 16.1 0.00 0.00 0.00 60 1046.6
20260507170326 19 200 6.4 16.1 0.00 0.00 0.00 61 1046.6
20260507170056 19 220 6.4 16.1 0.00 0.00 0.00 61 1046.6
20260507165721 19 172 6.4 16.1 0.00 0.00 0.00 60 1046.6
20260507165622 19 172 4.8 16.1 0.00 0.00 0.00 60 1046.6
20260507165521 19 213 4.8 14.5 0.00 0.00 0.00 60 1046.6
20260507165404 19 183 4.8 11.3 0.00 0.00 0.00 61 1046.5
20260507165315 19 183 4.8 11.3 0.00 0.00 0.00 60 1046.6
20260507165214 19 212 4.8 11.3 0.00 0.00 0.00 61 1046.5
20260507165115 19 212 4.8 11.3 0.00 0.00 0.00 61 1046.5
20260507165032 19 126 4.8 11.3 0.00 0.00 0.00 61 1046.5
20260507165006 20 202 6.4 11.3 0.00 0.00 0.00 61 1046.5
20260507164958 20 201 6.4 11.3 0.00 0.00 0.00 60 1046.5
20260507164935 20 201 6.4 11.3 0.00 0.00 0.00 60 1046.5
20260507164928 20 201 6.4 11.3 0.00 0.00 0.00 60 1046.5
20260507164435 20 198 6.4 14.5 0.00 0.00 0.00 60 1046.5
20260507164426 20 195 6.4 14.5 0.00 0.00 0.00 60 1046.5
20260507164149 20 268 6.4 14.5 0.00 0.00 0.00 60 1046.5
20260507164142 20 220 6.4 14.5 0.00 0.00 0.00 60 1046.5
20260507163906 20 221 6.4 14.5 0.00 0.00 0.00 60 1046.5
20260507163804 20 220 6.4 14.5 0.00 0.00 0.00 60 1046.5
20260507163704 20 212 6.4 14.5 0.00 0.00 0.00 60 1046.5
20260507163604 20 182 6.4 14.5 0.00 0.00 0.00 59 1046.5
20260507163503 20 181 6.4 14.5 0.00 0.00 0.00 60 1046.5
20260507163408 20 188 6.4 14.5 0.00 0.00 0.00 60 1046.5
20260507163306 20 224 6.4 14.5 0.00 0.00 0.00 61 1046.4
20260507163204 19 226 6.4 14.5 0.00 0.00 0.00 60 1046.4
20260507163106 19 227 6.4 14.5 0.00 0.00 0.00 60 1046.4
20260507163004 19 226 6.4 14.5 0.00 0.00 0.00 59 1046.4
20260507162907 19 226 6.4 14.5 0.00 0.00 0.00 59 1046.4
20260507162804 19 211 6.4 14.5 0.00 0.00 0.00 59 1046.4
20260507162703 19 210 6.4 14.5 0.00 0.00 0.00 60 1046.4
20260507162604 19 230 4.8 14.5 0.00 0.00 0.00 59 1046.4
20260507162503 19 135 6.4 12.9 0.00 0.00 0.00 58 1046.3
20260507162406 20 134 6.4 17.7 0.00 0.00 0.00 58 1046.4
20260507162318 20 179 6.4 17.7 0.00 0.00 0.00 58 1046.4
20260507162310 20 211 6.4 17.7 0.00 0.00 0.00 59 1046.3
20260507162254 20 211 6.4 17.7 0.00 0.00 0.00 59 1046.3
20260507162247 20 212 4.8 17.7 0.00 0.00 0.00 60 1046.3
20260507162231 20 258 4.8 17.7 0.00 0.00 0.00 61 1046.3
20260507161957 19 258 6.4 17.7 0.00 0.00 0.00 60 1046.3
20260507161946 19 260 6.4 17.7 0.00 0.00 0.00 60 1046.3
20260507161924 19 261 6.4 17.7 0.00 0.00 0.00 59 1046.3
20260507161907 19 206 6.4 16.1 0.00 0.00 0.00 59 1046.3
20260507161851 19 142 6.4 16.1 0.00 0.00 0.00 59 1046.4
20260507161620 19 141 8.0 16.1 0.00 0.00 0.00 59 1046.4
20260507161031 19 185 8.0 16.1 0.00 0.00 0.00 60 1046.4
20260507160704 19 179 8.0 17.7 0.00 0.00 0.00 60 1046.4
20260507160644 19 178 8.0 17.7 0.00 0.00 0.00 60 1046.4
20260507160637 19 191 8.0 17.7 0.00 0.00 0.00 60 1046.3
20260507160618 19 200 8.0 17.7 0.00 0.00 0.00 61 1046.4
20260507160306 19 181 9.7 17.7 0.00 0.00 0.00 61 1046.3
20260507160203 19 197 9.7 19.3 0.00 0.00 0.00 61 1046.3
20260507160110 19 181 9.7 19.3 0.00 0.00 0.00 62 1046.3
20260507160004 19 168 9.7 19.3 0.00 0.00 0.00 61 1046.3
20260507155906 19 166 9.7 19.3 0.00 0.00 0.00 61 1046.3
20260507155805 19 206 9.7 19.3 0.00 0.00 0.00 62 1046.2
20260507155731 19 221 9.7 19.3 0.00 0.00 0.00 61 1046.2
20260507155722 19 223 9.7 19.3 0.00 0.00 0.00 61 1046.2
20260507155406 19 221 9.7 19.3 0.00 0.00 0.00 61 1046.2
20260507155306 19 228 9.7 22.5 0.00 0.00 0.00 61 1046.3
20260507155204 19 230 9.7 22.5 0.00 0.00 0.00 61 1046.3
20260507155145 19 268 9.7 22.5 0.00 0.00 0.00 61 1046.3
20260507155137 19 212 9.7 22.5 0.00 0.00 0.00 61 1046.3
20260507154905 20 196 9.7 22.5 0.00 0.00 0.00 61 1046.4
20260507154804 20 129 9.7 22.5 0.00 0.00 0.00 61 1046.3
20260507154705 20 120 9.7 22.5 0.00 0.00 0.00 61 1046.3
20260507154603 20 172 9.7 22.5 0.00 0.00 0.00 61 1046.3
20260507154503 20 199 9.7 22.5 0.00 0.00 0.00 61 1046.3
20260507154407 20 212 8.0 22.5 0.00 0.00 0.00 61 1046.3
20260507154301 20 214 8.0 20.9 0.00 0.00 0.00 61 1046.4
20260507154201 20 203 8.0 19.3 0.00 0.00 0.00 62 1046.4
20260507154101 20 210 8.0 19.3 0.00 0.00 0.00 62 1046.4
20260507154001 20 231 9.7 19.3 0.00 0.00 0.00 62 1046.4
20260507153911 20 172 9.7 17.7 0.00 0.00 0.00 62 1046.4
20260507153758 19 183 9.7 17.7 0.00 0.00 0.00 62 1046.4
20260507153657 19 155 9.7 17.7 0.00 0.00 0.00 62 1046.4
20260507153557 19 170 8.0 17.7 0.00 0.00 0.00 63 1046.5
20260507153457 19 217 9.7 17.7 0.00 0.00 0.00 63 1046.4
20260507153358 19 215 8.0 17.7 0.00 0.00 0.00 62 1046.4
20260507153318 19 221 8.0 17.7 0.00 0.00 0.00 62 1046.5
20260507153309 19 199 8.0 17.7 0.00 0.00 0.00 62 1046.4
20260507152945 19 202 6.4 17.7 0.00 0.00 0.00 63 1046.5
20260507152848 19 233 6.4 14.5 0.00 0.00 0.00 63 1046.4
20260507152812 19 177 4.8 12.9 0.00 0.00 0.00 64 1046.4
20260507152805 19 179 6.4 12.9 0.00 0.00 0.00 64 1046.4
20260507152439 19 180 4.8 12.9 0.00 0.00 0.00 63 1046.4
20260507152339 19 181 4.8 12.9 0.00 0.00 0.00 63 1046.4
20260507152239 19 179 4.8 12.9 0.00 0.00 0.00 63 1046.4
20260507152139 19 174 6.4 12.9 0.00 0.00 0.00 63 1046.4
20260507152039 19 207 6.4 12.9 0.00 0.00 0.00 63 1046.4
20260507151939 19 207 6.4 14.5 0.00 0.00 0.00 62 1046.4
20260507151839 19 129 6.4 14.5 0.00 0.00 0.00 62 1046.5
20260507151737 20 141 6.4 20.9 0.00 0.00 0.00 62 1046.4
20260507151637 20 135 6.4 20.9 0.00 0.00 0.00 63 1046.5
20260507151556 20 245 6.4 20.9 0.00 0.00 0.00 64 1046.5
20260507151549 20 245 8.0 20.9 0.00 0.00 0.00 64 1046.5
20260507151526 19 245 8.0 20.9 0.00 0.00 0.00 64 1046.5
20260507151504 19 164 8.0 20.9 0.00 0.00 0.00 63 1046.4
20260507151237 19 125 8.0 20.9 0.00 0.00 0.00 64 1046.4
20260507151227 19 98 6.4 20.9 0.00 0.00 0.00 63 1046.4
20260507150958 20 134 6.4 20.9 0.00 0.00 0.00 63 1046.4
20260507150633 20 103 8.0 14.5 0.00 0.00 0.00 63 1046.4
20260507150534 20 100 8.0 14.5 0.00 0.00 0.00 62 1046.4
20260507150435 20 162 8.0 14.5 0.00 0.00 0.00 63 1046.6
20260507150334 19 222 8.0 14.5 0.00 0.00 0.00 63 1046.5
20260507150232 19 183 8.0 14.5 0.00 0.00 0.00 62 1046.5
20260507150132 19 143 8.0 16.1 0.00 0.00 0.00 63 1046.6
20260507150112 19 214 8.0 17.7 0.00 0.00 0.00 63 1046.6
20260507150103 19 215 8.0 17.7 0.00 0.00 0.00 62 1046.5
20260507150052 19 218 9.7 17.7 0.00 0.00 0.00 62 1046.6
20260507145731 19 218 9.7 17.7 0.00 0.00 0.00 63 1046.5
20260507145657 19 206 9.7 17.7 0.00 0.00 0.00 63 1046.6
20260507145648 19 200 8.0 17.7 0.00 0.00 0.00 63 1046.6
20260507145641 19 200 8.0 17.7 0.00 0.00 0.00 63 1046.6
20260507145620 19 201 8.0 17.7 0.00 0.00 0.00 63 1046.6
20260507145612 19 197 8.0 17.7 0.00 0.00 0.00 63 1046.6
20260507145603 19 217 8.0 17.7 0.00 0.00 0.00 64 1046.6
20260507145557 19 151 8.0 14.5 0.00 0.00 0.00 63 1046.6
20260507145111 19 164 8.0 14.5 0.00 0.00 0.00 63 1046.6
20260507144531 19 200 8.0 14.5 0.00 0.00 0.00 64 1046.7
20260507144431 19 174 8.0 14.5 0.00 0.00 0.00 63 1046.6
20260507144345 19 77 8.0 14.5 0.00 0.00 0.00 64 1046.7
20260507144332 19 143 8.0 14.5 0.00 0.00 0.00 64 1046.7
20260507144231 19 174 8.0 14.5 0.00 0.00 0.00 64 1046.7
20260507144131 19 182 8.0 14.5 0.00 0.00 0.00 65 1046.6
20260507144031 19 230 8.0 14.5 0.00 0.00 0.00 65 1046.6
20260507143931 19 249 8.0 14.5 0.00 0.00 0.00 66 1046.7
20260507143842 19 244 8.0 14.5 0.00 0.00 0.00 66 1046.7
20260507143831 19 241 8.0 14.5 0.00 0.00 0.00 66 1046.7
20260507143731 18 210 6.4 14.5 0.00 0.00 0.00 66 1046.7
20260507143631 18 224 6.4 12.9 0.00 0.00 0.00 66 1046.7
20260507143529 18 247 6.4 12.9 0.00 0.00 0.00 66 1046.6
20260507143429 18 260 4.8 12.9 0.00 0.00 0.00 65 1046.7
20260507143342 18 228 4.8 12.9 0.00 0.00 0.00 65 1046.7
20260507143329 18 227 4.8 12.9 0.00 0.00 0.00 65 1046.7
20260507143229 18 226 4.8 12.9 0.00 0.00 0.00 65 1046.8
20260507143132 18 166 4.8 12.9 0.00 0.00 0.00 65 1046.8
20260507143030 18 166 4.8 12.9 0.00 0.00 0.00 64 1046.8
20260507142927 18 166 4.8 12.9 0.00 0.00 0.00 65 1046.8
20260507142829 18 166 4.8 12.9 0.00 0.00 0.00 65 1046.8
20260507142727 18 166 4.8 14.5 0.00 0.00 0.00 65 1046.8
20260507142628 19 221 4.8 14.5 0.00 0.00 0.00 65 1046.8
20260507142527 19 221 4.8 14.5 0.00 0.00 0.00 65 1046.8
20260507142438 18 220 6.4 14.5 0.00 0.00 0.00 66 1046.7
20260507142426 18 221 6.4 14.5 0.00 0.00 0.00 66 1046.8
20260507142417 18 222 6.4 14.5 0.00 0.00 0.00 66 1046.8
20260507142404 18 210 6.4 14.5 0.00 0.00 0.00 66 1046.8
20260507142136 18 231 6.4 16.1 0.00 0.00 0.00 66 1046.8
20260507142124 18 231 6.4 16.1 0.00 0.00 0.00 66 1046.9
20260507142112 18 231 6.4 16.1 0.00 0.00 0.00 67 1046.9
20260507141847 18 229 8.0 16.1 0.00 0.00 0.00 66 1046.9
20260507141524 18 239 6.4 16.1 0.00 0.00 0.00 67 1047.0
20260507141423 18 202 8.0 16.1 0.00 0.00 0.00 67 1047.0
20260507141323 18 222 6.4 16.1 0.00 0.00 0.00 67 1047.1
20260507141223 18 222 6.4 16.1 0.00 0.00 0.00 67 1047.1
20260507141123 18 230 6.4 14.5 0.00 0.00 0.00 67 1047.1
20260507141111 18 231 6.4 14.5 0.00 0.00 0.00 67 1047.1
20260507141059 18 228 6.4 14.5 0.00 0.00 0.00 67 1047.1
20260507140821 18 231 6.4 14.5 0.00 0.00 0.00 67 1047.1
20260507140752 18 197 6.4 14.5 0.00 0.00 0.00 67 1047.1
20260507140743 18 228 6.4 12.9 0.00 0.00 0.00 67 1047.1
20260507140500 18 225 6.4 14.5 0.00 0.00 0.00 67 1047.2
20260507140442 18 226 8.0 14.5 0.00 0.00 0.00 67 1047.2
20260507140116 18 225 6.4 16.1 0.00 0.00 0.00 68 1047.2
20260507140016 18 174 6.4 16.1 0.00 0.00 0.00 69 1047.2
20260507135940 18 224 6.4 16.1 0.00 0.00 0.00 69 1047.3
20260507135925 18 224 6.4 16.1 0.00 0.00 0.00 69 1047.2
20260507135918 18 224 6.4 16.1 0.00 0.00 0.00 69 1047.2
20260507135909 18 231 6.4 16.1 0.00 0.00 0.00 69 1047.2
20260507135856 18 222 4.8 16.1 0.00 0.00 0.00 70 1047.2
20260507135849 18 222 4.8 16.1 0.00 0.00 0.00 70 1047.2
20260507135841 18 207 4.8 16.1 0.00 0.00 0.00 70 1047.1
20260507135832 18 208 4.8 16.1 0.00 0.00 0.00 70 1047.2
20260507135823 18 199 4.8 16.1 0.00 0.00 0.00 70 1047.2
20260507135550 18 222 4.8 14.5 0.00 0.00 0.00 71 1047.2
20260507135539 18 221 4.8 14.5 0.00 0.00 0.00 71 1047.2
20260507135528 18 213 4.8 14.5 0.00 0.00 0.00 72 1047.2
20260507135259 18 213 4.8 14.5 0.00 0.00 0.00 71 1047.2
20260507135033 18 210 4.8 14.5 0.00 0.00 0.00 71 1047.3
20260507134803 18 210 4.8 14.5 0.00 0.00 0.00 72 1047.3
20260507134753 18 210 4.8 14.5 0.00 0.00 0.00 72 1047.3
20260507134746 18 209 4.8 14.5 0.00 0.00 0.00 73 1047.3
20260507134518 18 227 4.8 12.9 0.00 0.00 0.00 72 1047.2
20260507134509 18 149 4.8 12.9 0.00 0.00 0.00 73 1047.3
20260507134502 18 149 6.4 12.9 0.00 0.00 0.00 73 1047.3
20260507134450 17 149 6.4 12.9 0.00 0.00 0.00 72 1047.3
20260507133732 17 226 6.4 16.1 0.00 0.00 0.00 74 1047.3
20260507133459 17 127 8.0 16.1 0.00 0.00 0.00 74 1047.3
20260507133448 17 185 8.0 16.1 0.00 0.00 0.00 74 1047.3
20260507133438 17 200 8.0 16.1 0.00 0.00 0.00 74 1047.4
20260507133431 17 260 8.0 16.1 0.00 0.00 0.00 75 1047.4
20260507133417 17 258 8.0 16.1 0.00 0.00 0.00 75 1047.4
20260507133149 17 266 6.4 16.1 0.00 0.00 0.00 76 1047.5
20260507132609 17 228 8.0 17.7 0.00 0.00 0.00 76 1047.5
20260507132509 17 229 8.0 17.7 0.00 0.00 0.00 76 1047.5
20260507132409 17 166 9.7 17.7 0.00 0.00 0.00 78 1047.5
20260507132348 17 169 9.7 17.7 0.00 0.00 0.00 78 1047.6
20260507132341 17 188 9.7 17.7 0.00 0.00 0.00 78 1047.6
20260507132331 17 228 9.7 17.7 0.00 0.00 0.00 78 1047.5
20260507132011 17 227 9.7 17.7 0.00 0.00 0.00 79 1047.5
20260507131909 17 220 11.3 17.7 0.00 0.00 0.00 79 1047.4
20260507131831 17 219 11.3 17.7 0.00 0.00 0.00 79 1047.5
20260507131809 17 241 11.3 17.7 0.00 0.00 0.00 79 1047.5
20260507131709 17 244 11.3 17.7 0.00 0.00 0.00 79 1047.5
20260507131610 17 240 11.3 17.7 0.00 0.00 0.00 79 1047.5
20260507131510 17 239 11.3 17.7 0.00 0.00 0.00 79 1047.5
20260507131409 17 260 9.7 17.7 0.00 0.00 0.00 78 1047.5
20260507131332 17 243 9.7 17.7 0.00 0.00 0.00 78 1047.5
20260507131318 17 241 9.7 17.7 0.00 0.00 0.00 78 1047.5
20260507131209 17 235 9.7 17.7 0.00 0.00 0.00 77 1047.6
20260507131105 17 237 9.7 17.7 0.00 0.00 0.00 77 1047.6
20260507131005 17 231 9.7 19.3 0.00 0.00 0.00 77 1047.6
20260507130917 17 245 9.7 19.3 0.00 0.00 0.00 77 1047.6
20260507130856 17 243 9.7 19.3 0.00 0.00 0.00 77 1047.7
20260507130848 18 222 9.7 19.3 0.00 0.00 0.00 76 1047.7
20260507130836 18 268 9.7 19.3 0.00 0.00 0.00 76 1047.7
20260507130551 18 264 8.0 19.3 0.00 0.00 0.00 75 1047.7
20260507130308 18 260 8.0 19.3 0.00 0.00 0.00 74 1047.9
20260507130206 18 239 8.0 19.3 0.00 0.00 0.00 72 1047.8
20260507130110 18 268 8.0 19.3 0.00 0.00 0.00 71 1047.8
20260507130101 18 219 6.4 14.5 0.00 0.00 0.00 70 1047.8
20260507130051 18 216 6.4 14.5 0.00 0.00 0.00 70 1047.9
20260507130040 18 216 6.4 14.5 0.00 0.00 0.00 69 1048.0
20260507130028 18 208 6.4 14.5 0.00 0.00 0.00 69 1048.0
20260507125756 17 205 6.4 14.5 0.00 0.00 0.00 69 1048.0
20260507125532 18 147 6.4 16.1 0.00 0.00 0.00 69 1048.0
20260507125521 18 146 6.4 16.1 0.00 0.00 0.00 69 1048.0
20260507125510 18 206 6.4 16.1 0.00 0.00 0.00 69 1048.0
20260507125241 18 240 6.4 16.1 0.00 0.00 0.00 69 1048.0
20260507125231 18 108 6.4 16.1 0.00 0.00 0.00 69 1048.0
20260507125221 18 259 6.4 16.1 0.00 0.00 0.00 69 1048.0
20260507125211 18 247 6.4 16.1 0.00 0.00 0.00 69 1048.0
20260507124940 18 193 6.4 16.1 0.00 0.00 0.00 69 1048.0
20260507124929 18 194 6.4 16.1 0.00 0.00 0.00 69 1048.0
20260507124921 18 195 4.8 16.1 0.00 0.00 0.00 69 1048.0
20260507124912 18 210 4.8 16.1 0.00 0.00 0.00 69 1048.0
20260507124644 18 177 4.8 16.1 0.00 0.00 0.00 68 1048.0
20260507124159 18 126 4.8 12.9 0.00 0.00 0.00 68 1047.9
20260507123923 18 207 4.8 12.9 0.00 0.00 0.00 68 1047.9
20260507123916 18 141 4.8 12.9 0.00 0.00 0.00 68 1047.9
20260507123849 18 135 6.4 17.7 0.00 0.00 0.00 69 1047.9
20260507123621 18 133 6.4 17.7 0.00 0.00 0.00 68 1047.9
20260507123610 18 133 6.4 17.7 0.00 0.00 0.00 68 1047.9
20260507123304 18 133 6.4 17.7 0.00 0.00 0.00 67 1047.9
20260507123208 18 133 6.4 17.7 0.00 0.00 0.00 68 1047.9
20260507123120 18 174 6.4 17.7 0.00 0.00 0.00 68 1047.9
20260507123111 18 214 4.8 17.7 0.00 0.00 0.00 67 1047.9
20260507123053 18 177 6.4 17.7 0.00 0.00 0.00 67 1047.9
20260507122807 18 177 4.8 17.7 0.00 0.00 0.00 67 1047.9
20260507122730 18 228 6.4 14.5 0.00 0.00 0.00 67 1047.9
20260507122722 18 172 6.4 14.5 0.00 0.00 0.00 67 1047.9
20260507122710 18 172 4.8 14.5 0.00 0.00 0.00 67 1047.9
20260507122701 18 172 4.8 14.5 0.00 0.00 0.00 67 1047.9
20260507122647 18 171 6.4 14.5 0.00 0.00 0.00 66 1047.8
20260507122417 18 177 6.4 16.1 0.00 0.00 0.00 67 1047.8
20260507122407 18 92 6.4 16.1 0.00 0.00 0.00 66 1047.8
20260507122132 18 92 6.4 16.1 0.00 0.00 0.00 66 1047.7
20260507122111 18 116 6.4 16.1 0.00 0.00 0.00 66 1047.7
20260507122056 18 114 6.4 16.1 0.00 0.00 0.00 66 1047.7
20260507121551 18 119 6.4 16.1 0.00 0.00 0.00 66 1047.8
20260507121527 18 164 8.0 16.1 0.00 0.00 0.00 66 1047.9
20260507121201 18 154 8.0 16.1 0.00 0.00 0.00 66 1047.9
20260507121102 18 184 6.4 16.1 0.00 0.00 0.00 66 1048.0
20260507120958 18 194 6.4 16.1 0.00 0.00 0.00 65 1047.9
20260507120853 18 188 6.4 16.1 0.00 0.00 0.00 65 1047.9
20260507120839 18 184 6.4 16.1 0.00 0.00 0.00 65 1047.9
20260507120829 18 102 6.4 14.5 0.00 0.00 0.00 65 1047.9
20260507120818 18 89 6.4 14.5 0.00 0.00 0.00 64 1047.9
20260507120807 18 208 6.4 14.5 0.00 0.00 0.00 64 1047.9
20260507120539 19 93 6.4 14.5 0.00 0.00 0.00 63 1047.8
20260507120530 19 101 6.4 14.5 0.00 0.00 0.00 63 1047.8
20260507120149 19 237 6.4 14.5 0.00 0.00 0.00 63 1047.8
20260507120120 19 141 6.4 14.5 0.00 0.00 0.00 63 1047.9
20260507120113 19 180 6.4 14.5 0.00 0.00 0.00 62 1047.9
20260507120056 19 184 6.4 14.5 0.00 0.00 0.00 62 1047.9
20260507115743 19 121 6.4 14.5 0.00 0.00 0.00 62 1047.9
20260507115726 19 221 6.4 14.5 0.00 0.00 0.00 62 1047.9
20260507115718 19 233 4.8 14.5 0.00 0.00 0.00 62 1047.8
20260507115705 19 234 4.8 14.5 0.00 0.00 0.00 61 1047.8
20260507115657 19 197 4.8 11.3 0.00 0.00 0.00 61 1047.9
20260507115648 19 184 4.8 11.3 0.00 0.00 0.00 61 1047.9
20260507115638 19 184 3.2 11.3 0.00 0.00 0.00 61 1047.9
20260507115630 19 189 3.2 9.7 0.00 0.00 0.00 62 1047.8
20260507115144 19 130 4.8 14.5 0.00 0.00 0.00 62 1047.8
20260507114915 19 129 4.8 14.5 0.00 0.00 0.00 62 1047.8
20260507114904 19 64 4.8 14.5 0.00 0.00 0.00 62 1047.8
20260507114857 19 64 6.4 14.5 0.00 0.00 0.00 62 1047.8
20260507114621 19 64 6.4 14.5 0.00 0.00 0.00 61 1047.8
20260507114350 19 64 6.4 14.5 0.00 0.00 0.00 62 1047.9
20260507114339 19 62 6.4 14.5 0.00 0.00 0.00 61 1047.8
20260507114109 19 98 6.4 14.5 0.00 0.00 0.00 60 1047.9
20260507114053 19 93 6.4 12.9 0.00 0.00 0.00 59 1047.9
20260507113737 19 93 6.4 12.9 0.00 0.00 0.00 59 1047.9
20260507113637 19 91 6.4 12.9 0.00 0.00 0.00 59 1047.9
20260507113537 19 83 6.4 16.1 0.00 0.00 0.00 60 1047.9
20260507113435 19 219 4.8 16.1 0.00 0.00 0.00 60 1047.9
20260507113342 19 109 6.4 16.1 0.00 0.00 0.00 60 1048.0
20260507113333 19 108 6.4 16.1 0.00 0.00 0.00 60 1048.0
20260507113234 19 109 6.4 16.1 0.00 0.00 0.00 59 1048.0
20260507113137 19 106 6.4 16.1 0.00 0.00 0.00 58 1048.0
20260507113035 19 50 6.4 16.1 0.00 0.00 0.00 57 1048.0
20260507112933 19 86 6.4 16.1 0.00 0.00 0.00 56 1048.0
20260507112831 20 87 4.8 16.1 0.00 0.00 0.00 57 1048.0
20260507112732 20 87 4.8 16.1 0.00 0.00 0.00 58 1048.0
20260507112632 20 82 4.8 16.1 0.00 0.00 0.00 58 1048.0
20260507112532 20 149 4.8 12.9 0.00 0.00 0.00 58 1048.0
20260507112429 20 149 4.8 12.9 0.00 0.00 0.00 57 1048.0
20260507112327 20 149 4.8 12.9 0.00 0.00 0.00 57 1048.0
20260507112227 20 100 4.8 12.9 0.00 0.00 0.00 57 1048.1
20260507112129 20 188 4.8 12.9 0.00 0.00 0.00 56 1048.0
20260507112027 20 150 4.8 12.9 0.00 0.00 0.00 59 1048.1
20260507111923 20 151 4.8 12.9 0.00 0.00 0.00 58 1048.1
20260507111823 20 147 4.8 12.9 0.00 0.00 0.00 58 1048.1
20260507111723 20 147 6.4 12.9 0.00 0.00 0.00 57 1048.1
20260507111621 20 118 6.4 14.5 0.00 0.00 0.00 57 1048.1
20260507111521 20 106 4.8 14.5 0.00 0.00 0.00 57 1048.1
20260507111415 20 83 4.8 14.5 0.00 0.00 0.00 56 1048.1
20260507111315 20 131 6.4 14.5 0.00 0.00 0.00 56 1048.1
20260507111217 20 159 6.4 14.5 0.00 0.00 0.00 55 1048.2
20260507111121 20 159 8.0 16.1 0.00 0.00 0.00 55 1048.2
20260507111109 20 159 8.0 16.1 0.00 0.00 0.00 57 1048.2
20260507111058 20 131 8.0 16.1 0.00 0.00 0.00 55 1048.2
20260507110807 20 131 8.0 16.1 0.00 0.00 0.00 55 1048.2
20260507110707 20 153 8.0 16.1 0.00 0.00 0.00 55 1048.2
20260507110607 20 167 6.4 16.1 0.00 0.00 0.00 56 1048.3
20260507110515 20 72 6.4 16.1 0.00 0.00 0.00 57 1048.3
20260507110506 20 73 6.4 16.1 0.00 0.00 0.00 56 1048.2
20260507110448 20 72 6.4 16.1 0.00 0.00 0.00 56 1048.3
20260507110146 20 97 6.4 16.1 0.00 0.00 0.00 57 1048.3
20260507110138 20 85 6.4 16.1 0.00 0.00 0.00 59 1048.3
20260507110127 19 88 4.8 16.1 0.00 0.00 0.00 59 1048.4
20260507110113 19 126 4.8 16.1 0.00 0.00 0.00 59 1048.4
20260507105844 19 150 4.8 12.9 0.00 0.00 0.00 57 1048.4
20260507105606 19 157 4.8 12.9 0.00 0.00 0.00 59 1048.4
20260507105553 19 153 4.8 12.9 0.00 0.00 0.00 59 1048.4
20260507105308 19 150 6.4 12.9 0.00 0.00 0.00 61 1048.4
20260507105201 18 125 6.4 16.1 0.00 0.00 0.00 61 1048.4
20260507105130 18 126 6.4 16.1 0.00 0.00 0.00 61 1048.4
20260507105122 18 126 6.4 16.1 0.00 0.00 0.00 60 1048.4
20260507104831 18 126 6.4 16.1 0.00 0.00 0.00 60 1048.4
20260507104800 18 127 6.4 16.1 0.00 0.00 0.00 61 1048.4
20260507104746 18 128 6.4 16.1 0.00 0.00 0.00 60 1048.4
20260507104737 18 127 6.4 16.1 0.00 0.00 0.00 60 1048.4
20260507104724 18 127 6.4 16.1 0.00 0.00 0.00 60 1048.4
20260507104455 18 127 6.4 16.1 0.00 0.00 0.00 59 1048.5
20260507104440 18 131 6.4 16.1 0.00 0.00 0.00 59 1048.5
20260507104215 18 71 6.4 14.5 0.00 0.00 0.00 58 1048.4
20260507104155 18 70 8.0 16.1 0.00 0.00 0.00 58 1048.4
20260507104147 18 69 8.0 16.1 0.00 0.00 0.00 59 1048.4
20260507104136 18 72 8.0 16.1 0.00 0.00 0.00 58 1048.5
20260507103555 18 73 8.0 16.1 0.00 0.00 0.00 59 1048.5
20260507103452 18 68 8.0 16.1 0.00 0.00 0.00 58 1048.5
20260507103353 18 88 8.0 16.1 0.00 0.00 0.00 58 1048.5
20260507103333 18 102 8.0 16.1 0.00 0.00 0.00 59 1048.5
20260507103252 18 113 8.0 16.1 0.00 0.00 0.00 59 1048.5
20260507103150 18 114 8.0 16.1 0.00 0.00 0.00 59 1048.6
20260507103049 19 112 8.0 16.1 0.00 0.00 0.00 59 1048.5
20260507102948 19 122 8.0 14.5 0.00 0.00 0.00 60 1048.6
20260507102849 19 116 6.4 14.5 0.00 0.00 0.00 60 1048.6
20260507102835 19 132 6.4 14.5 0.00 0.00 0.00 60 1048.6
20260507102818 19 143 6.4 14.5 0.00 0.00 0.00 61 1048.6
20260507102810 19 94 4.8 14.5 0.00 0.00 0.00 62 1048.6
20260507102802 19 85 4.8 14.5 0.00 0.00 0.00 61 1048.6
20260507102751 19 132 4.8 14.5 0.00 0.00 0.00 61 1048.6
20260507102737 19 133 4.8 14.5 0.00 0.00 0.00 61 1048.7
20260507102253 19 164 4.8 12.9 0.00 0.00 0.00 62 1048.7
20260507102242 19 166 4.8 12.9 0.00 0.00 0.00 63 1048.7
20260507102232 19 175 3.2 12.9 0.00 0.00 0.00 62 1048.7
20260507102006 19 177 4.8 12.9 0.00 0.00 0.00 62 1048.7
20260507101711 19 86 3.2 12.9 0.00 0.00 0.00 63 1048.7
20260507101659 18 86 3.2 12.9 0.00 0.00 0.00 62 1048.7
20260507101334 18 181 3.2 11.3 0.00 0.00 0.00 62 1048.7
20260507101239 18 181 4.8 11.3 0.00 0.00 0.00 61 1048.7
20260507101131 18 182 4.8 12.9 0.00 0.00 0.00 62 1048.8
20260507101029 18 181 4.8 16.1 0.00 0.00 0.00 62 1048.8
20260507100929 18 181 6.4 16.1 0.00 0.00 0.00 63 1048.8